KJ6MC Weather Reports


Display with metric or nautical units.
time (UTC)temp
F
wind
direction
speed
MPH
gust
MPH
rain 1hr
in
rain 24hr
in
rain mn
in
humidity
%
barometer
mb
20210305043026 54 219 1.0 3.0 0.00 0.00 0.00 68 1023.6
20210305042958 54 248 1.0 3.0 0.00 0.00 0.00 68 1023.6
20210305042946 54 248 1.0 3.0 0.00 0.00 0.00 68 1023.6
20210305042908 54 263 1.0 3.0 0.00 0.00 0.00 68 1023.6
20210305042849 54 248 1.0 3.0 0.00 0.00 0.00 68 1023.6
20210305042722 54 248 1.0 3.0 0.00 0.00 0.00 68 1023.6
20210305042636 54 239 1.0 3.0 0.00 0.00 0.00 68 1023.6
20210305042524 54 222 1.0 3.0 0.00 0.00 0.00 68 1023.5
20210305042233 54 225 1.0 3.0 0.00 0.00 0.00 68 1023.5
20210305042023 54 225 1.0 3.0 0.00 0.00 0.00 67 1023.5
20210305041840 54 252 1.0 3.0 0.00 0.00 0.00 67 1023.5
20210305041711 54 232 0.0 3.0 0.00 0.00 0.00 67 1023.5
20210305041611 54 233 0.0 2.0 0.00 0.00 0.00 67 1023.4
20210305041529 54 242 0.0 2.0 0.00 0.00 0.00 67 1023.4
20210305041416 54 242 0.0 2.0 0.00 0.00 0.00 67 1023.5
20210305041310 54 210 0.0 2.0 0.00 0.00 0.00 67 1023.4
20210305041204 54 242 0.0 2.0 0.00 0.00 0.00 67 1023.4
20210305041104 54 219 0.0 2.0 0.00 0.00 0.00 66 1023.4
20210305041029 54 229 0.0 1.0 0.00 0.00 0.00 66 1023.4
20210305040906 54 229 0.0 1.0 0.00 0.00 0.00 66 1023.4
20210305040808 54 229 0.0 1.0 0.00 0.00 0.00 66 1023.4
20210305040701 54 229 0.0 2.0 0.00 0.00 0.00 66 1023.4
20210305040601 55 229 0.0 2.0 0.00 0.00 0.00 66 1023.4
20210305040523 55 238 0.0 2.0 0.00 0.00 0.00 66 1023.4
20210305040452 55 238 0.0 2.0 0.00 0.00 0.00 65 1023.4
20210305040440 55 238 0.0 2.0 0.00 0.00 0.00 65 1023.4
20210305040411 55 238 0.0 2.0 0.00 0.00 0.00 65 1023.3
20210305040350 55 238 0.0 2.0 0.00 0.00 0.00 65 1023.3
20210305040249 55 238 0.0 2.0 0.00 0.00 0.00 65 1023.3
20210305040234 55 238 0.0 2.0 0.00 0.00 0.00 65 1023.3
20210305040157 55 238 0.0 2.0 0.00 0.00 0.00 64 1023.3
20210305040143 55 195 0.0 1.0 0.00 0.00 0.00 64 1023.3
20210305040129 55 195 0.0 2.0 0.00 0.00 0.00 64 1023.3
20210305040058 55 208 0.0 4.0 0.00 0.00 0.00 64 1023.3
20210305040033 55 208 1.0 5.0 0.00 0.00 0.00 64 1023.3
20210305040031 56 208 1.0 6.0 0.00 0.00 0.00 64 1023.3
20210305035956 56 208 1.0 6.0 0.00 0.00 0.00 64 1023.3
20210305035946 56 208 1.0 6.0 0.00 0.00 0.00 63 1023.3
20210305035927 56 208 1.0 6.0 0.00 0.00 0.00 63 1023.2
20210305035633 56 208 1.0 10.0 0.00 0.00 0.00 63 1023.3
20210305035430 56 208 2.0 10.0 0.00 0.00 0.00 63 1023.3
20210305035128 56 273 2.0 10.0 0.00 0.00 0.00 63 1023.3
20210305034757 56 271 2.0 10.0 0.00 0.00 0.00 63 1023.2
20210305034642 56 191 2.0 10.0 0.00 0.00 0.00 63 1023.2
20210305034433 56 252 2.0 10.0 0.00 0.00 0.00 63 1023.3
20210305034356 56 229 2.0 10.0 0.00 0.00 0.00 63 1023.3
20210305034333 56 244 2.0 10.0 0.00 0.00 0.00 63 1023.3
20210305034233 56 259 2.0 10.0 0.00 0.00 0.00 63 1023.4
20210305034127 56 253 2.0 10.0 0.00 0.00 0.00 63 1023.3
20210305034042 55 214 1.0 10.0 0.00 0.00 0.00 63 1023.3
20210305033935 55 214 1.0 5.0 0.00 0.00 0.00 64 1023.4
20210305033857 55 167 1.0 5.0 0.00 0.00 0.00 64 1023.3
20210305033836 55 235 1.0 5.0 0.00 0.00 0.00 64 1023.3
20210305033723 55 177 1.0 5.0 0.00 0.00 0.00 65 1023.3
20210305033624 55 236 1.0 4.0 0.00 0.00 0.00 65 1023.3
20210305033525 55 235 0.0 4.0 0.00 0.00 0.00 66 1023.3
20210305033428 54 296 0.0 4.0 0.00 0.00 0.00 67 1023.2
20210305033400 54 224 0.0 4.0 0.00 0.00 0.00 67 1023.2
20210305033321 54 195 0.0 1.0 0.00 0.00 0.00 67 1023.3
20210305033219 54 194 0.0 1.0 0.00 0.00 0.00 67 1023.3
20210305033119 54 194 0.0 1.0 0.00 0.00 0.00 67 1023.3
20210305033040 54 194 0.0 1.0 0.00 0.00 0.00 67 1023.3
20210305032916 54 194 0.0 1.0 0.00 0.00 0.00 66 1023.3
20210305032854 54 194 0.0 1.0 0.00 0.00 0.00 66 1023.3
20210305032818 54 194 0.0 1.0 0.00 0.00 0.00 66 1023.3
20210305032755 54 194 0.0 1.0 0.00 0.00 0.00 66 1023.3
20210305032743 54 194 0.0 1.0 0.00 0.00 0.00 66 1023.2
20210305032612 54 194 0.0 1.0 0.00 0.00 0.00 66 1023.2
20210305032523 54 194 0.0 1.0 0.00 0.00 0.00 66 1023.2
20210305032458 54 194 0.0 1.0 0.00 0.00 0.00 66 1023.2
20210305032422 54 194 0.0 1.0 0.00 0.00 0.00 66 1023.2
20210305032325 54 195 0.0 1.0 0.00 0.00 0.00 66 1023.2
20210305032236 54 194 0.0 1.0 0.00 0.00 0.00 66 1023.2
20210305032119 54 194 0.0 1.0 0.00 0.00 0.00 66 1023.2
20210305031917 54 194 0.0 1.0 0.00 0.00 0.00 66 1023.2
20210305031859 54 194 0.0 1.0 0.00 0.00 0.00 66 1023.2
20210305031816 54 194 0.0 1.0 0.00 0.00 0.00 66 1023.2
20210305031707 54 194 0.0 1.0 0.00 0.00 0.00 66 1023.2
20210305031611 54 194 0.0 1.0 0.00 0.00 0.00 66 1023.1
20210305031521 54 194 0.0 1.0 0.00 0.00 0.00 66 1023.2
20210305031406 54 224 0.0 1.0 0.00 0.00 0.00 66 1023.1
20210305031353 54 224 0.0 1.0 0.00 0.00 0.00 66 1023.1
20210305031309 54 224 0.0 1.0 0.00 0.00 0.00 66 1023.1
20210305031211 54 219 0.0 1.0 0.00 0.00 0.00 66 1023.1
20210305031106 54 219 0.0 1.0 0.00 0.00 0.00 66 1023.1
20210305031022 54 219 0.0 1.0 0.00 0.00 0.00 66 1023.1
20210305030852 54 219 0.0 1.0 0.00 0.00 0.00 66 1023.1
20210305030807 54 219 0.0 0.0 0.00 0.00 0.00 65 1023.0
20210305030659 54 219 0.0 0.0 0.00 0.00 0.00 65 1023.0
20210305030558 54 219 0.0 0.0 0.00 0.00 0.00 65 1022.9
20210305030455 54 219 0.0 0.0 0.00 0.00 0.00 65 1022.9
20210305030402 54 219 0.0 0.0 0.00 0.00 0.00 64 1022.9
20210305030257 54 219 0.0 0.0 0.00 0.00 0.00 64 1022.9
20210305030156 55 219 0.0 0.0 0.00 0.00 0.00 64 1023.0
20210305030123 55 219 0.0 0.0 0.00 0.00 0.00 64 1022.9
20210305030043 55 219 0.0 0.0 0.00 0.00 0.00 64 1022.9
20210305030026 55 219 0.0 0.0 0.00 0.00 0.00 64 1022.9
20210305025957 55 219 0.0 0.0 0.00 0.00 0.00 63 1022.9
20210305025951 55 219 0.0 0.0 0.00 0.00 0.00 63 1022.9
20210305025934 55 219 0.0 0.0 0.00 0.00 0.00 63 1022.9
20210305025911 55 219 0.0 0.0 0.00 0.00 0.00 63 1022.9
20210305025825 55 219 0.0 0.0 0.00 0.00 0.00 62 1022.9
20210305025714 55 219 0.0 0.0 0.00 0.00 0.00 62 1022.9
20210305025619 55 219 0.0 0.0 0.00 0.00 0.00 62 1022.8
20210305025436 56 219 0.0 0.0 0.00 0.00 0.00 61 1022.8
20210305025221 56 219 0.0 0.0 0.00 0.00 0.00 61 1022.9
20210305024913 56 219 0.0 0.0 0.00 0.00 0.00 61 1022.8
20210305024757 56 219 0.0 0.0 0.00 0.00 0.00 61 1022.8
20210305024639 56 219 0.0 0.0 0.00 0.00 0.00 60 1022.8
20210305024540 56 219 0.0 0.0 0.00 0.00 0.00 59 1022.8
20210305024438 57 219 0.0 0.0 0.00 0.00 0.00 59 1022.8
20210305024335 57 219 0.0 0.0 0.00 0.00 0.00 59 1022.8
20210305024234 57 219 0.0 0.0 0.00 0.00 0.00 59 1022.8
20210305024136 57 219 0.0 0.0 0.00 0.00 0.00 58 1022.8
20210305024036 57 219 0.0 0.0 0.00 0.00 0.00 59 1022.8
20210305023931 57 219 0.0 0.0 0.00 0.00 0.00 59 1022.9
20210305023830 58 219 0.0 0.0 0.00 0.00 0.00 59 1022.8
20210305023732 58 219 0.0 0.0 0.00 0.00 0.00 59 1022.8
20210305023632 58 219 0.0 0.0 0.00 0.00 0.00 58 1022.8
20210305023535 58 219 0.0 0.0 0.00 0.00 0.00 58 1022.8
20210305023430 58 219 0.0 0.0 0.00 0.00 0.00 58 1022.8
20210305023328 58 219 0.0 0.0 0.00 0.00 0.00 58 1022.7
20210305023225 58 219 0.0 0.0 0.00 0.00 0.00 57 1022.7
20210305023125 58 219 0.0 0.0 0.00 0.00 0.00 57 1022.7
20210305023029 58 219 0.0 0.0 0.00 0.00 0.00 57 1022.7
20210305022947 58 219 0.0 0.0 0.00 0.00 0.00 56 1022.7
20210305022940 58 219 0.0 0.0 0.00 0.00 0.00 56 1022.7
20210305022925 59 219 0.0 0.0 0.00 0.00 0.00 56 1022.8
20210305022914 59 219 0.0 0.0 0.00 0.00 0.00 56 1022.7
20210305022850 59 219 0.0 0.0 0.00 0.00 0.00 56 1022.8
20210305022841 59 219 0.0 0.0 0.00 0.00 0.00 56 1022.7
20210305022811 59 219 0.0 0.0 0.00 0.00 0.00 56 1022.7
20210305022755 59 219 0.0 0.0 0.00 0.00 0.00 55 1022.7
20210305022600 59 219 0.0 0.0 0.00 0.00 0.00 55 1022.7
20210305022416 60 219 0.0 0.0 0.00 0.00 0.00 55 1022.7
20210305022136 60 219 0.0 0.0 0.00 0.00 0.00 55 1022.7
20210305021952 60 219 0.0 0.0 0.00 0.00 0.00 54 1022.7
20210305021906 60 219 0.0 0.0 0.00 0.00 0.00 54 1022.7
20210305021854 60 219 0.0 0.0 0.00 0.00 0.00 54 1022.7
20210305021811 60 219 0.0 0.0 0.00 0.00 0.00 53 1022.7
20210305021649 60 219 0.0 0.0 0.00 0.00 0.00 53 1022.7
20210305021521 61 219 0.0 1.0 0.00 0.00 0.00 52 1022.7
20210305021401 61 219 0.0 1.0 0.00 0.00 0.00 51 1022.7
20210305021317 61 219 0.0 1.0 0.00 0.00 0.00 51 1022.7
20210305021303 61 219 0.0 1.0 0.00 0.00 0.00 51 1022.7
20210305021202 61 219 0.0 1.0 0.00 0.00 0.00 51 1022.7
20210305021057 61 219 0.0 1.0 0.00 0.00 0.00 51 1022.7
20210305020958 61 219 0.0 1.0 0.00 0.00 0.00 51 1022.7
20210305020855 62 219 0.0 1.0 0.00 0.00 0.00 51 1022.7
20210305020809 62 219 0.0 1.0 0.00 0.00 0.00 51 1022.7
20210305020752 62 219 0.0 1.0 0.00 0.00 0.00 51 1022.7
20210305020708 62 219 0.0 1.0 0.00 0.00 0.00 51 1022.7
20210305020601 62 219 0.0 2.0 0.00 0.00 0.00 51 1022.7
20210305020451 62 219 0.0 2.0 0.00 0.00 0.00 51 1022.7
20210305020347 62 219 1.0 2.0 0.00 0.00 0.00 51 1022.7
20210305020311 62 219 1.0 2.0 0.00 0.00 0.00 51 1022.7
20210305020250 62 219 1.0 2.0 0.00 0.00 0.00 50 1022.7
20210305020205 62 219 1.0 2.0 0.00 0.00 0.00 50 1022.7
20210305020139 62 219 1.0 2.0 0.00 0.00 0.00 50 1022.7
20210305020109 62 218 1.0 2.0 0.00 0.00 0.00 50 1022.7
20210305020037 62 218 1.0 2.0 0.00 0.00 0.00 50 1022.7
20210305020026 62 218 1.0 3.0 0.00 0.00 0.00 50 1022.7
20210305015927 62 210 1.0 3.0 0.00 0.00 0.00 50 1022.7
20210305015902 62 223 1.0 3.0 0.00 0.00 0.00 49 1022.7
20210305015850 63 222 2.0 3.0 0.00 0.00 0.00 49 1022.7
20210305015839 63 232 2.0 4.0 0.00 0.00 0.00 50 1022.7
20210305015614 63 224 2.0 4.0 0.00 0.00 0.00 50 1022.6
20210305015610 63 230 2.0 4.0 0.00 0.00 0.00 50 1022.6
20210305015423 63 231 2.0 4.0 0.00 0.00 0.00 50 1022.6
20210305015257 63 232 2.0 4.0 0.00 0.00 0.00 49 1022.6
20210305015126 63 225 2.0 4.0 0.00 0.00 0.00 49 1022.6
20210305014957 63 221 2.0 4.0 0.00 0.00 0.00 49 1022.6
20210305014909 63 241 2.0 4.0 0.00 0.00 0.00 49 1022.6
20210305014813 63 217 2.0 4.0 0.00 0.00 0.00 49 1022.6
20210305014628 63 239 2.0 4.0 0.00 0.00 0.00 49 1022.6
20210305014544 63 222 2.0 4.0 0.00 0.00 0.00 49 1022.7
20210305014424 63 235 1.0 4.0 0.00 0.00 0.00 49 1022.6
20210305014321 63 230 1.0 4.0 0.00 0.00 0.00 49 1022.6
20210305014240 63 224 1.0 4.0 0.00 0.00 0.00 49 1022.6
20210305014222 63 238 1.0 4.0 0.00 0.00 0.00 50 1022.6
20210305014124 63 224 1.0 4.0 0.00 0.00 0.00 50 1022.6
20210305014033 63 188 1.0 4.0 0.00 0.00 0.00 50 1022.6
20210305013919 63 212 2.0 4.0 0.00 0.00 0.00 50 1022.6
20210305013812 63 212 1.0 4.0 0.00 0.00 0.00 50 1022.6
20210305013741 63 223 1.0 4.0 0.00 0.00 0.00 50 1022.6
20210305013713 63 221 1.0 4.0 0.00 0.00 0.00 51 1022.6
20210305013612 63 226 2.0 4.0 0.00 0.00 0.00 51 1022.6
20210305013524 63 229 2.0 4.0 0.00 0.00 0.00 51 1022.6
20210305013412 63 151 1.0 4.0 0.00 0.00 0.00 50 1022.6
20210305013326 64 210 1.0 4.0 0.00 0.00 0.00 50 1022.6
20210305013320 64 221 1.0 4.0 0.00 0.00 0.00 51 1022.6
20210305013316 64 225 1.0 4.0 0.00 0.00 0.00 51 1022.6
20210305013217 64 228 1.0 4.0 0.00 0.00 0.00 51 1022.6
20210305013055 64 206 1.0 3.0 0.00 0.00 0.00 51 1022.6
20210305013020 64 195 2.0 3.0 0.00 0.00 0.00 51 1022.7
20210305012952 64 210 2.0 4.0 0.00 0.00 0.00 51 1022.6
20210305012940 64 229 2.0 4.0 0.00 0.00 0.00 51 1022.6
20210305012930 64 230 2.0 4.0 0.00 0.00 0.00 51 1022.6
20210305012917 64 212 2.0 4.0 0.00 0.00 0.00 51 1022.6
20210305012851 64 200 2.0 4.0 0.00 0.00 0.00 51 1022.6
20210305012831 64 199 1.0 4.0 0.00 0.00 0.00 51 1022.6
20210305012813 64 221 1.0 4.0 0.00 0.00 0.00 51 1022.7
20210305012707 64 221 1.0 4.0 0.00 0.00 0.00 51 1022.6
20210305012636 64 225 1.0 4.0 0.00 0.00 0.00 51 1022.6
20210305012528 64 205 1.0 4.0 0.00 0.00 0.00 50 1022.6
20210305012232 64 238 1.0 4.0 0.00 0.00 0.00 50 1022.6
20210305012141 64 231 1.0 4.0 0.00 0.00 0.00 50 1022.6
20210305011949 64 205 1.0 2.0 0.00 0.00 0.00 50 1022.6
20210305011713 64 224 1.0 2.0 0.00 0.00 0.00 50 1022.6
20210305011648 64 210 1.0 2.0 0.00 0.00 0.00 50 1022.6
20210305011604 64 211 1.0 3.0 0.00 0.00 0.00 50 1022.6
20210305011449 64 219 1.0 3.0 0.00 0.00 0.00 50 1022.6
20210305011352 64 219 1.0 3.0 0.00 0.00 0.00 50 1022.6
20210305011244 64 219 1.0 3.0 0.00 0.00 0.00 50 1022.6
20210305011203 64 219 1.0 3.0 0.00 0.00 0.00 50 1022.6
20210305011145 65 219 1.0 3.0 0.00 0.00 0.00 50 1022.6
20210305011049 65 219 1.0 3.0 0.00 0.00 0.00 50 1022.6
20210305010952 65 238 1.0 4.0 0.00 0.00 0.00 50 1022.6
20210305010842 65 226 1.0 4.0 0.00 0.00 0.00 50 1022.6
20210305010739 65 205 1.0 4.0 0.00 0.00 0.00 50 1022.6
20210305010658 65 210 1.0 4.0 0.00 0.00 0.00 50 1022.6
20210305010637 65 233 1.0 4.0 0.00 0.00 0.00 49 1022.6
20210305010544 65 205 1.0 4.0 0.00 0.00 0.00 50 1022.6
20210305010436 65 205 1.0 4.0 0.00 0.00 0.00 50 1022.6
20210305010342 65 185 1.0 4.0 0.00 0.00 0.00 50 1022.6
20210305010234 65 184 1.0 4.0 0.00 0.00 0.00 49 1022.5
20210305010151 65 176 1.0 4.0 0.00 0.00 0.00 49 1022.6
20210305010142 65 194 1.0 4.0 0.00 0.00 0.00 49 1022.6
20210305010041 65 139 1.0 4.0 0.00 0.00 0.00 49 1022.6
20210305005949 65 184 1.0 4.0 0.00 0.00 0.00 49 1022.6
20210305005937 65 124 1.0 4.0 0.00 0.00 0.00 49 1022.6
20210305005909 65 124 1.0 4.0 0.00 0.00 0.00 49 1022.6
20210305005901 65 124 1.0 4.0 0.00 0.00 0.00 49 1022.6
20210305005850 65 139 1.0 4.0 0.00 0.00 0.00 49 1022.6
20210305005822 65 198 1.0 4.0 0.00 0.00 0.00 49 1022.6
20210305005811 65 136 1.0 5.0 0.00 0.00 0.00 49 1022.6
20210305005802 65 160 1.0 5.0 0.00 0.00 0.00 49 1022.6
20210305005653 65 160 1.0 5.0 0.00 0.00 0.00 48 1022.6
20210305005611 65 160 1.0 5.0 0.00 0.00 0.00 49 1022.6
20210305005557 65 127 1.0 5.0 0.00 0.00 0.00 49 1022.6
20210305005356 66 188 1.0 5.0 0.00 0.00 0.00 48 1022.6
20210305005208 66 162 1.0 5.0 0.00 0.00 0.00 48 1022.6
20210305005034 66 155 1.0 5.0 0.00 0.00 0.00 48 1022.5
20210305004754 66 143 1.0 5.0 0.00 0.00 0.00 48 1022.6
20210305004634 66 195 1.0 5.0 0.00 0.00 0.00 48 1022.6
20210305004617 66 198 1.0 5.0 0.00 0.00 0.00 48 1022.6
20210305004532 66 201 1.0 5.0 0.00 0.00 0.00 48 1022.6
20210305004414 66 188 1.0 4.0 0.00 0.00 0.00 48 1022.6
20210305004316 66 158 1.0 4.0 0.00 0.00 0.00 48 1022.6
20210305004208 66 158 1.0 4.0 0.00 0.00 0.00 48 1022.6
20210305004128 66 146 1.0 4.0 0.00 0.00 0.00 48 1022.6
20210305004110 66 165 1.0 4.0 0.00 0.00 0.00 48 1022.6
20210305004028 66 165 1.0 4.0 0.00 0.00 0.00 48 1022.6
20210305003911 66 165 2.0 4.0 0.00 0.00 0.00 47 1022.6
20210305003808 66 164 2.0 4.0 0.00 0.00 0.00 47 1022.6
20210305003701 66 232 2.0 6.0 0.00 0.00 0.00 48 1022.6
20210305003621 66 232 2.0 6.0 0.00 0.00 0.00 48 1022.6
20210305003604 66 232 3.0 6.0 0.00 0.00 0.00 48 1022.6
20210305003501 66 232 3.0 6.0 0.00 0.00 0.00 47 1022.6
20210305003400 66 217 3.0 6.0 0.00 0.00 0.00 47 1022.6
20210305003305 66 205 3.0 6.0 0.00 0.00 0.00 46 1022.7
20210305003200 66 238 3.0 6.0 0.00 0.00 0.00 46 1022.6
20210305003127 66 198 3.0 6.0 0.00 0.00 0.00 46 1022.6
20210305003123 66 197 3.0 6.0 0.00 0.00 0.00 46 1022.6
20210305003049 66 139 3.0 6.0 0.00 0.00 0.00 47 1022.6
20210305003036 66 204 3.0 6.0 0.00 0.00 0.00 46 1022.6
20210305002945 67 248 2.0 6.0 0.00 0.00 0.00 46 1022.7
20210305002844 67 227 2.0 6.0 0.00 0.00 0.00 46 1022.6
20210305002828 67 233 2.0 6.0 0.00 0.00 0.00 46 1022.6
20210305002822 67 215 2.0 6.0 0.00 0.00 0.00 46 1022.6
20210305002731 67 200 2.0 6.0 0.00 0.00 0.00 46 1022.6
20210305002710 67 211 1.0 6.0 0.00 0.00 0.00 46 1022.6
20210305002644 67 200 1.0 4.0 0.00 0.00 0.00 46 1022.7
20210305002537 67 197 1.0 4.0 0.00 0.00 0.00 47 1022.7
20210305002411 67 144 1.0 4.0 0.00 0.00 0.00 46 1022.6
20210305002337 67 144 1.0 4.0 0.00 0.00 0.00 46 1022.6
20210305002129 67 139 1.0 4.0 0.00 0.00 0.00 47 1022.6
20210305001933 67 204 1.0 4.0 0.00 0.00 0.00 47 1022.6
20210305001806 67 188 1.0 4.0 0.00 0.00 0.00 47 1022.6
20210305001642 67 212 1.0 4.0 0.00 0.00 0.00 47 1022.6
20210305001606 67 195 1.0 4.0 0.00 0.00 0.00 47 1022.6
20210305001547 67 159 1.0 4.0 0.00 0.00 0.00 47 1022.6
20210305001441 67 203 1.0 5.0 0.00 0.00 0.00 47 1022.6
20210305001339 67 203 2.0 5.0 0.00 0.00 0.00 47 1022.7
20210305001237 66 201 2.0 6.0 0.00 0.00 0.00 47 1022.7
20210305001132 66 219 2.0 6.0 0.00 0.00 0.00 48 1022.7
20210305001056 66 236 2.0 6.0 0.00 0.00 0.00 48 1022.7
20210305001033 66 150 2.0 6.0 0.00 0.00 0.00 48 1022.7
20210305000934 66 276 2.0 6.0 0.00 0.00 0.00 47 1022.6
20210305000831 66 242 2.0 6.0 0.00 0.00 0.00 48 1022.6
20210305000753 66 242 2.0 6.0 0.00 0.00 0.00 48 1022.7
20210305000735 66 241 2.0 6.0 0.00 0.00 0.00 47 1022.7
20210305000722 66 205 2.0 6.0 0.00 0.00 0.00 47 1022.7
20210305000700 66 215 2.0 6.0 0.00 0.00 0.00 47 1022.7
20210305000620 67 236 2.0 6.0 0.00 0.00 0.00 47 1022.7
20210305000529 67 219 2.0 6.0 0.00 0.00 0.00 47 1022.7
20210305000400 67 225 2.0 7.0 0.00 0.00 0.00 47 1022.7
20210305000139 67 218 3.0 7.0 0.00 0.00 0.00 48 1022.7
20210305000055 66 221 4.0 8.0 0.00 0.00 0.00 49 1022.7
20210305000030 66 190 4.0 8.0 0.00 0.00 0.00 49 1022.7
20210304235959 66 201 4.0 8.0 0.00 0.00 0.00 49 1022.7
20210304235937 66 198 4.0 8.0 0.00 0.00 0.00 49 1022.7
20210304235841 66 195 4.0 8.0 0.00 0.00 0.00 48 1022.7
20210304235813 66 129 4.0 8.0 0.00 0.00 0.00 48 1022.8
20210304235635 66 124 4.0 8.0 0.00 0.00 0.00 48 1022.7
20210304235525 66 124 4.0 8.0 0.00 0.00 0.00 48 1022.7
20210304235354 66 124 3.0 8.0 0.00 0.00 0.00 48 1022.8
20210304235159 66 110 3.0 8.0 0.00 0.00 0.00 48 1022.8
20210304234936 66 174 3.0 8.0 0.00 0.00 0.00 47 1022.8
20210304234721 66 158 3.0 8.0 0.00 0.00 0.00 48 1022.8
20210304234612 66 214 3.0 7.0 0.00 0.00 0.00 48 1022.8
20210304234551 66 270 3.0 7.0 0.00 0.00 0.00 48 1022.8
20210304234520 66 214 4.0 7.0 0.00 0.00 0.00 48 1022.8
20210304234400 66 197 4.0 7.0 0.00 0.00 0.00 48 1022.8
20210304234300 66 149 4.0 7.0 0.00 0.00 0.00 48 1022.8
20210304234200 66 207 4.0 7.0 0.00 0.00 0.00 47 1022.8
20210304234101 66 216 4.0 7.0 0.00 0.00 0.00 47 1022.8
20210304234024 66 197 4.0 7.0 0.00 0.00 0.00 47 1022.7
20210304233956 66 250 4.0 7.0 0.00 0.00 0.00 47 1022.7
20210304233854 66 235 4.0 7.0 0.00 0.00 0.00 47 1022.7
20210304233758 66 198 3.0 7.0 0.00 0.00 0.00 47 1022.7
20210304233655 67 231 3.0 7.0 0.00 0.00 0.00 46 1022.7
20210304233553 67 270 3.0 7.0 0.00 0.00 0.00 46 1022.7
20210304233529 67 248 3.0 7.0 0.00 0.00 0.00 46 1022.7
20210304233449 67 243 3.0 7.0 0.00 0.00 0.00 46 1022.7
20210304233350 67 205 2.0 7.0 0.00 0.00 0.00 45 1022.7
20210304233249 67 200 2.0 7.0 0.00 0.00 0.00 46 1022.7
20210304233238 67 238 2.0 7.0 0.00 0.00 0.00 46 1022.7
20210304233215 67 195 1.0 4.0 0.00 0.00 0.00 46 1022.7
20210304233203 67 240 1.0 4.0 0.00 0.00 0.00 46 1022.6
20210304233158 67 236 1.0 4.0 0.00 0.00 0.00 47 1022.6
20210304233149 67 205 1.0 4.0 0.00 0.00 0.00 46 1022.6
20210304233133 67 215 1.0 4.0 0.00 0.00 0.00 46 1022.6
20210304233051 67 206 1.0 4.0 0.00 0.00 0.00 47 1022.6
20210304233032 67 238 1.0 4.0 0.00 0.00 0.00 47 1022.6
20210304233007 67 146 1.0 4.0 0.00 0.00 0.00 47 1022.6
20210304232953 67 203 1.0 4.0 0.00 0.00 0.00 47 1022.6
20210304232912 67 184 1.0 4.0 0.00 0.00 0.00 46 1022.6
20210304232856 67 245 1.0 4.0 0.00 0.00 0.00 46 1022.6
20210304232728 68 155 1.0 4.0 0.00 0.00 0.00 47 1022.6
20210304232546 67 155 1.0 4.0 0.00 0.00 0.00 47 1022.6
20210304232310 67 255 1.0 4.0 0.00 0.00 0.00 47 1022.6
20210304232216 68 255 1.0 4.0 0.00 0.00 0.00 46 1022.6
20210304232042 68 197 1.0 4.0 0.00 0.00 0.00 47 1022.6
20210304231749 68 224 1.0 3.0 0.00 0.00 0.00 46 1022.6
20210304231638 68 187 1.0 3.0 0.00 0.00 0.00 46 1022.6
20210304231538 68 150 1.0 3.0 0.00 0.00 0.00 47 1022.6
20210304231451 67 236 1.0 3.0 0.00 0.00 0.00 47 1022.6
20210304231430 67 210 1.0 2.0 0.00 0.00 0.00 48 1022.6
20210304231326 67 212 1.0 3.0 0.00 0.00 0.00 47 1022.6
20210304231225 67 229 1.0 3.0 0.00 0.00 0.00 47 1022.6
20210304231124 67 0 1.0 3.0 0.00 0.00 0.00 47 1022.5
20210304231044 67 358 1.0 5.0 0.00 0.00 0.00 48 1022.5
20210304230941 67 198 1.0 6.0 0.00 0.00 0.00 48 1022.6
20210304230934 67 198 1.0 6.0 0.00 0.00 0.00 47 1022.6
20210304230829 67 199 1.0 6.0 0.00 0.00 0.00 47 1022.5
20210304230719 67 198 2.0 6.0 0.00 0.00 0.00 48 1022.5
20210304230621 67 198 2.0 6.0 0.00 0.00 0.00 48 1022.5
20210304230538 66 217 3.0 6.0 0.00 0.00 0.00 47 1022.5
20210304230443 66 246 3.0 6.0 0.00 0.00 0.00 47 1022.5
20210304230427 66 246 3.0 6.0 0.00 0.00 0.00 48 1022.5
20210304230314 66 119 3.0 6.0 0.00 0.00 0.00 48 1022.5
20210304230232 66 180 3.0 7.0 0.00 0.00 0.00 48 1022.5
20210304230202 66 124 3.0 7.0 0.00 0.00 0.00 48 1022.5
20210304230134 66 136 3.0 7.0 0.00 0.00 0.00 48 1022.6
20210304230126 66 198 3.0 7.0 0.00 0.00 0.00 48 1022.6
20210304230124 66 169 3.0 7.0 0.00 0.00 0.00 47 1022.6
20210304230113 66 214 3.0 7.0 0.00 0.00 0.00 47 1022.6
20210304230047 67 181 3.0 7.0 0.00 0.00 0.00 47 1022.6
20210304230026 67 143 3.0 7.0 0.00 0.00 0.00 47 1022.6
20210304225928 67 180 3.0 7.0 0.00 0.00 0.00 47 1022.6
20210304225921 67 170 3.0 7.0 0.00 0.00 0.00 47 1022.6
20210304225917 67 156 3.0 7.0 0.00 0.00 0.00 47 1022.6
20210304225830 67 212 3.0 7.0 0.00 0.00 0.00 48 1022.6
20210304225633 67 142 3.0 7.0 0.00 0.00 0.00 48 1022.6
20210304225439 67 139 3.0 7.0 0.00 0.00 0.00 48 1022.6
20210304225152 67 240 2.0 7.0 0.00 0.00 0.00 47 1022.6
20210304225049 67 143 2.0 7.0 0.00 0.00 0.00 47 1022.7
20210304225020 67 145 2.0 7.0 0.00 0.00 0.00 47 1022.7
20210304224808 67 125 2.0 7.0 0.00 0.00 0.00 47 1022.7
20210304224700 67 130 2.0 4.0 0.00 0.00 0.00 48 1022.6
20210304224604 67 103 2.0 4.0 0.00 0.00 0.00 48 1022.7
20210304224453 66 86 2.0 4.0 0.00 0.00 0.00 47 1022.7
20210304224410 66 84 2.0 4.0 0.00 0.00 0.00 48 1022.6
20210304224356 66 103 2.0 4.0 0.00 0.00 0.00 48 1022.6
20210304224254 66 169 2.0 4.0 0.00 0.00 0.00 48 1022.6
20210304224155 66 92 2.0 4.0 0.00 0.00 0.00 48 1022.6
20210304224053 66 113 2.0 4.0 0.00 0.00 0.00 48 1022.6
20210304223942 66 130 2.0 4.0 0.00 0.00 0.00 48 1022.6
20210304223911 66 70 2.0 4.0 0.00 0.00 0.00 47 1022.6
20210304223844 66 86 2.0 4.0 0.00 0.00 0.00 47 1022.6
20210304223744 67 89 2.0 4.0 0.00 0.00 0.00 47 1022.6
20210304223644 67 126 2.0 4.0 0.00 0.00 0.00 47 1022.7
20210304223542 67 161 2.0 4.0 0.00 0.00 0.00 47 1022.7
20210304223447 67 222 1.0 4.0 0.00 0.00 0.00 48 1022.7
20210304223400 66 308 1.0 4.0 0.00 0.00 0.00 48 1022.7
20210304223348 66 139 1.0 4.0 0.00 0.00 0.00 49 1022.7
20210304223325 66 134 1.0 4.0 0.00 0.00 0.00 49 1022.7
20210304223243 66 120 1.0 4.0 0.00 0.00 0.00 49 1022.7
20210304223139 66 84 1.0 5.0 0.00 0.00 0.00 49 1022.7
20210304223029 65 150 2.0 5.0 0.00 0.00 0.00 49 1022.7
20210304223023 65 200 2.0 7.0 0.00 0.00 0.00 49 1022.7
20210304223021 65 205 2.0 7.0 0.00 0.00 0.00 49 1022.7
20210304222942 65 136 2.0 7.0 0.00 0.00 0.00 49 1022.7
20210304222929 65 89 2.0 7.0 0.00 0.00 0.00 49 1022.8
20210304222839 65 248 2.0 7.0 0.00 0.00 0.00 49 1022.8
20210304222827 65 259 3.0 8.0 0.00 0.00 0.00 48 1022.8
20210304222813 65 240 3.0 8.0 0.00 0.00 0.00 49 1022.8
20210304222738 65 257 3.0 8.0 0.00 0.00 0.00 49 1022.8
20210304222626 65 177 4.0 8.0 0.00 0.00 0.00 49 1022.8
20210304222428 65 176 4.0 8.0 0.00 0.00 0.00 49 1022.9
20210304222238 65 226 4.0 8.0 0.00 0.00 0.00 49 1022.8
20210304222035 65 198 4.0 8.0 0.00 0.00 0.00 49 1022.8
20210304221857 65 134 4.0 8.0 0.00 0.00 0.00 48 1022.9
20210304221840 65 219 4.0 8.0 0.00 0.00 0.00 48 1022.9
20210304221804 65 195 4.0 8.0 0.00 0.00 0.00 49 1022.9
20210304221631 65 187 4.0 8.0 0.00 0.00 0.00 49 1022.9
20210304221526 65 201 4.0 8.0 0.00 0.00 0.00 49 1022.9
20210304221419 66 207 3.0 7.0 0.00 0.00 0.00 48 1022.9
20210304221333 66 165 3.0 6.0 0.00 0.00 0.00 49 1022.9
20210304221312 66 179 3.0 6.0 0.00 0.00 0.00 48 1022.9
20210304221213 66 151 2.0 6.0 0.00 0.00 0.00 48 1022.9
20210304221114 66 159 2.0 7.0 0.00 0.00 0.00 48 1022.9
20210304221030 66 200 2.0 7.0 0.00 0.00 0.00 48 1022.9
20210304220912 66 208 2.0 7.0 0.00 0.00 0.00 48 1022.9
20210304220827 66 116 2.0 7.0 0.00 0.00 0.00 49 1022.9
20210304220805 66 152 2.0 7.0 0.00 0.00 0.00 50 1022.9
20210304220708 66 165 2.0 7.0 0.00 0.00 0.00 50 1022.9
20210304220607 65 228 2.0 7.0 0.00 0.00 0.00 50 1022.9
20210304220518 65 224 2.0 7.0 0.00 0.00 0.00 50 1022.9
20210304220416 65 223 2.0 7.0 0.00 0.00 0.00 50 1022.9
20210304220322 65 222 2.0 7.0 0.00 0.00 0.00 49 1022.9
20210304220306 65 222 2.0 7.0 0.00 0.00 0.00 49 1022.9
20210304220246 65 233 1.0 7.0 0.00 0.00 0.00 49 1022.9
20210304220230 65 231 1.0 6.0 0.00 0.00 0.00 50 1022.9
20210304220206 65 228 1.0 6.0 0.00 0.00 0.00 49 1022.9
20210304220145 65 187 1.0 6.0 0.00 0.00 0.00 49 1022.9
20210304220136 65 238 1.0 4.0 0.00 0.00 0.00 50 1023.0
20210304220128 65 169 1.0 6.0 0.00 0.00 0.00 50 1023.0
20210304220112 65 285 2.0 6.0 0.00 0.00 0.00 50 1022.9
20210304220105 66 270 2.0 8.0 0.00 0.00 0.00 50 1023.0
20210304220045 65 198 2.0 8.0 0.00 0.00 0.00 51 1023.0
20210304220035 65 195 3.0 8.0 0.00 0.00 0.00 52 1023.0
20210304220028 65 195 3.0 8.0 0.00 0.00 0.00 52 1023.1
20210304220024 65 195 3.0 8.0 0.00 0.00 0.00 52 1023.1
20210304215928 65 277 3.0 8.0 0.00 0.00 0.00 53 1023.1
20210304215736 64 224 3.0 9.0 0.00 0.00 0.00 52 1023.1
20210304215413 64 134 3.0 9.0 0.00 0.00 0.00 51 1023.0
20210304215143 65 101 3.0 9.0 0.00 0.00 0.00 50 1023.1
20210304214959 65 137 3.0 9.0 0.00 0.00 0.00 50 1023.1
20210304214819 65 158 3.0 9.0 0.00 0.00 0.00 50 1023.1
20210304214653 65 129 3.0 9.0 0.00 0.00 0.00 51 1023.1
20210304214606 65 110 3.0 9.0 0.00 0.00 0.00 50 1023.1
20210304214445 65 188 3.0 9.0 0.00 0.00 0.00 50 1023.1
20210304214339 65 203 3.0 9.0 0.00 0.00 0.00 50 1023.1
20210304214257 65 215 3.0 9.0 0.00 0.00 0.00 51 1023.0
20210304214242 65 143 3.0 9.0 0.00 0.00 0.00 51 1023.0
20210304214150 65 132 2.0 6.0 0.00 0.00 0.00 50 1023.0
20210304214114 65 98 3.0 6.0 0.00 0.00 0.00 50 1023.0
20210304213939 65 141 3.0 6.0 0.00 0.00 0.00 50 1023.1
20210304213830 65 167 3.0 6.0 0.00 0.00 0.00 50 1023.1
20210304213754 65 138 2.0 6.0 0.00 0.00 0.00 50 1023.1
20210304213737 65 113 2.0 6.0 0.00 0.00 0.00 50 1023.1
20210304213654 65 132 2.0 5.0 0.00 0.00 0.00 50 1023.0
20210304213555 65 132 2.0 6.0 0.00 0.00 0.00 49 1023.1
20210304213434 65 236 2.0 6.0 0.00 0.00 0.00 50 1023.1
20210304213326 65 182 2.0 6.0 0.00 0.00 0.00 50 1023.1
20210304213252 65 158 3.0 6.0 0.00 0.00 0.00 50 1023.1
20210304213240 65 191 3.0 6.0 0.00 0.00 0.00 50 1023.1
20210304213156 65 145 2.0 6.0 0.00 0.00 0.00 51 1023.1
20210304213049 64 176 2.0 6.0 0.00 0.00 0.00 52 1023.1
20210304212954 64 134 3.0 6.0 0.00 0.00 0.00 52 1023.1
20210304212926 64 98 3.0 6.0 0.00 0.00 0.00 51 1023.1
20210304212922 64 101 3.0 6.0 0.00 0.00 0.00 51 1023.1
20210304212913 64 210 3.0 6.0 0.00 0.00 0.00 51 1023.1
20210304212905 64 236 3.0 6.0 0.00 0.00 0.00 51 1023.1
20210304212832 64 179 3.0 6.0 0.00 0.00 0.00 52 1023.1
20210304212812 64 143 3.0 6.0 0.00 0.00 0.00 52 1023.1
20210304212709 64 120 2.0 6.0 0.00 0.00 0.00 52 1023.2
20210304212633 64 89 2.0 5.0 0.00 0.00 0.00 52 1023.2
20210304212605 64 112 2.0 5.0 0.00 0.00 0.00 52 1023.1
20210304212445 64 176 2.0 5.0 0.00 0.00 0.00 52 1023.2
20210304212244 64 127 2.0 5.0 0.00 0.00 0.00 52 1023.2
20210304212022 64 195 2.0 5.0 0.00 0.00 0.00 53 1023.2
20210304211842 64 152 2.0 5.0 0.00 0.00 0.00 52 1023.2
20210304211758 64 217 2.0 7.0 0.00 0.00 0.00 52 1023.2
20210304211708 64 236 2.0 7.0 0.00 0.00 0.00 52 1023.3
20210304211614 64 232 2.0 7.0 0.00 0.00 0.00 53 1023.2
20210304211529 63 183 2.0 7.0 0.00 0.00 0.00 53 1023.2
20210304211409 63 148 2.0 7.0 0.00 0.00 0.00 54 1023.3
20210304211303 63 198 2.0 7.0 0.00 0.00 0.00 55 1023.2
20210304211226 63 132 2.0 7.0 0.00 0.00 0.00 54 1023.2
20210304211200 63 175 2.0 7.0 0.00 0.00 0.00 54 1023.2
20210304211102 63 273 3.0 7.0 0.00 0.00 0.00 55 1023.3
20210304211011 62 285 3.0 7.0 0.00 0.00 0.00 54 1023.3
20210304210900 62 296 3.0 7.0 0.00 0.00 0.00 54 1023.4
20210304210809 62 297 4.0 7.0 0.00 0.00 0.00 54 1023.4
20210304210722 62 273 4.0 7.0 0.00 0.00 0.00 54 1023.4
20210304210657 62 226 4.0 7.0 0.00 0.00 0.00 54 1023.4
20210304210555 62 230 4.0 7.0 0.00 0.00 0.00 54 1023.4
20210304210454 62 195 4.0 7.0 0.00 0.00 0.00 53 1023.4
20210304210355 62 190 4.0 7.0 0.00 0.00 0.00 53 1023.4
20210304210250 62 192 4.0 7.0 0.00 0.00 0.00 53 1023.5
20210304210220 62 221 4.0 7.0 0.00 0.00 0.00 54 1023.4
20210304210154 62 191 4.0 7.0 0.00 0.00 0.00 54 1023.4
20210304210051 62 180 4.0 7.0 0.00 0.00 0.00 54 1023.4
20210304205952 62 211 4.0 7.0 0.00 0.00 0.00 54 1023.4
20210304205939 62 204 4.0 7.0 0.00 0.00 0.00 53 1023.5
20210304205932 62 256 4.0 9.0 0.00 0.00 0.00 54 1023.4
20210304205929 62 250 4.0 9.0 0.00 0.00 0.00 53 1023.5
20210304205922 62 228 4.0 9.0 0.00 0.00 0.00 53 1023.5
20210304205904 63 233 3.0 9.0 0.00 0.00 0.00 54 1023.6
20210304205854 63 240 3.0 9.0 0.00 0.00 0.00 55 1023.5
20210304205848 63 126 3.0 9.0 0.00 0.00 0.00 54 1023.5
20210304205840 63 231 3.0 9.0 0.00 0.00 0.00 53 1023.6
20210304205835 63 241 2.0 9.0 0.00 0.00 0.00 53 1023.5
20210304205807 63 154 2.0 9.0 0.00 0.00 0.00 53 1023.5
20210304205522 63 176 2.0 9.0 0.00 0.00 0.00 52 1023.6
20210304205227 63 198 2.0 9.0 0.00 0.00 0.00 52 1023.6
20210304205027 63 205 1.0 7.0 0.00 0.00 0.00 52 1023.6
20210304204826 63 200 1.0 6.0 0.00 0.00 0.00 54 1023.6
20210304204657 63 148 1.0 5.0 0.00 0.00 0.00 54 1023.6
20210304204635 63 136 1.0 5.0 0.00 0.00 0.00 54 1023.6
20210304204600 63 181 1.0 4.0 0.00 0.00 0.00 54 1023.6
20210304204432 63 194 2.0 7.0 0.00 0.00 0.00 54 1023.6
20210304204334 63 198 2.0 7.0 0.00 0.00 0.00 54 1023.6
20210304204226 63 198 2.0 7.0 0.00 0.00 0.00 54 1023.6
20210304204127 63 86 2.0 7.0 0.00 0.00 0.00 55 1023.6
20210304204038 62 96 2.0 7.0 0.00 0.00 0.00 54 1023.6
20210304203928 62 215 2.0 7.0 0.00 0.00 0.00 55 1023.6
20210304203801 62 207 2.0 7.0 0.00 0.00 0.00 55 1023.7
20210304203748 62 126 2.0 7.0 0.00 0.00 0.00 55 1023.7
20210304203740 62 136 2.0 7.0 0.00 0.00 0.00 55 1023.6
20210304203708 62 294 2.0 7.0 0.00 0.00 0.00 55 1023.7
20210304203637 62 168 2.0 6.0 0.00 0.00 0.00 56 1023.7
20210304203612 62 143 2.0 6.0 0.00 0.00 0.00 57 1023.7
20210304203552 62 225 2.0 6.0 0.00 0.00 0.00 56 1023.7
20210304203457 62 173 2.0 6.0 0.00 0.00 0.00 56 1023.7
20210304203452 62 228 2.0 6.0 0.00 0.00 0.00 56 1023.7
20210304203405 62 236 2.0 6.0 0.00 0.00 0.00 55 1023.7
20210304203253 62 134 2.0 6.0 0.00 0.00 0.00 55 1023.7
20210304203235 62 125 2.0 6.0 0.00 0.00 0.00 55 1023.7
20210304203222 62 93 2.0 5.0 0.00 0.00 0.00 56 1023.7
20210304203211 62 95 2.0 7.0 0.00 0.00 0.00 56 1023.7
20210304203203 62 89 3.0 7.0 0.00 0.00 0.00 56 1023.7
20210304203129 61 150 3.0 10.0 0.00 0.00 0.00 57 1023.7
20210304203112 61 216 3.0 10.0 0.00 0.00 0.00 57 1023.7
20210304203020 61 146 3.0 10.0 0.00 0.00 0.00 57 1023.7
20210304202928 61 266 3.0 10.0 0.00 0.00 0.00 57 1023.7
20210304202913 61 207 3.0 10.0 0.00 0.00 0.00 57 1023.7
20210304202901 61 138 3.0 10.0 0.00 0.00 0.00 58 1023.7
20210304202557 61 128 4.0 10.0 0.00 0.00 0.00 58 1023.7
20210304202207 61 92 4.0 10.0 0.00 0.00 0.00 57 1023.7
20210304201956 61 165 4.0 10.0 0.00 0.00 0.00 57 1023.7
20210304201707 61 134 3.0 10.0 0.00 0.00 0.00 57 1023.7
20210304201630 61 216 3.0 10.0 0.00 0.00 0.00 57 1023.7
20210304201623 61 198 3.0 10.0 0.00 0.00 0.00 57 1023.7
20210304201457 61 180 3.0 7.0 0.00 0.00 0.00 58 1023.7
20210304201356 61 218 3.0 8.0 0.00 0.00 0.00 57 1023.7
20210304201254 61 188 3.0 8.0 0.00 0.00 0.00 58 1023.7
20210304201155 61 174 3.0 8.0 0.00 0.00 0.00 57 1023.8
20210304201109 61 214 3.0 8.0 0.00 0.00 0.00 57 1023.8
20210304201053 61 222 3.0 8.0 0.00 0.00 0.00 58 1023.8
20210304200951 60 191 3.0 8.0 0.00 0.00 0.00 59 1023.7
20210304200848 60 117 3.0 8.0 0.00 0.00 0.00 58 1023.7
20210304200750 60 169 3.0 8.0 0.00 0.00 0.00 58 1023.8
20210304200649 60 188 3.0 8.0 0.00 0.00 0.00 58 1023.8
20210304200608 60 139 4.0 8.0 0.00 0.00 0.00 58 1023.7
20210304200548 60 139 4.0 8.0 0.00 0.00 0.00 58 1023.7
20210304200510 60 113 4.0 7.0 0.00 0.00 0.00 58 1023.8
20210304200435 60 82 4.0 7.0 0.00 0.00 0.00 58 1023.8
20210304200415 60 141 4.0 7.0 0.00 0.00 0.00 58 1023.8
20210304200343 60 103 4.0 7.0 0.00 0.00 0.00 59 1023.8
20210304200328 60 124 4.0 7.0 0.00 0.00 0.00 59 1023.8
20210304200308 60 84 4.0 7.0 0.00 0.00 0.00 59 1023.8
20210304200204 60 130 4.0 7.0 0.00 0.00 0.00 59 1023.8
20210304200146 60 155 4.0 7.0 0.00 0.00 0.00 59 1023.8
20210304200135 60 138 4.0 7.0 0.00 0.00 0.00 59 1023.8
20210304200111 60 150 4.0 7.0 0.00 0.00 0.00 59 1023.9
20210304200107 60 127 4.0 7.0 0.00 0.00 0.00 59 1023.8
20210304200052 60 105 4.0 7.0 0.00 0.00 0.00 58 1023.8
20210304195954 60 129 4.0 8.0 0.00 0.00 0.00 58 1023.9
20210304195924 60 113 4.0 10.0 0.00 0.00 0.00 58 1023.9
20210304195844 60 128 4.0 10.0 0.00 0.00 0.00 58 1023.9
20210304195638 60 82 4.0 10.0 0.00 0.00 0.00 57 1023.9
20210304195540 60 88 4.0 10.0 0.00 0.00 0.00 57 1023.9
20210304195356 60 131 4.0 10.0 0.00 0.00 0.00 58 1023.9
20210304195156 60 129 4.0 10.0 0.00 0.00 0.00 58 1023.9
20210304194935 60 179 4.0 10.0 0.00 0.00 0.00 59 1023.9
20210304194746 60 127 4.0 10.0 0.00 0.00 0.00 59 1023.9
20210304194629 59 198 4.0 10.0 0.00 0.00 0.00 59 1024.0
20210304194602 59 142 4.0 10.0 0.00 0.00 0.00 58 1024.0
20210304194530 59 118 4.0 10.0 0.00 0.00 0.00 59 1024.0
20210304194419 59 118 4.0 10.0 0.00 0.00 0.00 59 1024.0
20210304194318 59 166 4.0 9.0 0.00 0.00 0.00 59 1024.0
20210304194218 59 105 4.0 9.0 0.00 0.00 0.00 59 1024.0
20210304194114 59 135 4.0 9.0 0.00 0.00 0.00 58 1024.0
20210304194105 59 103 4.0 9.0 0.00 0.00 0.00 59 1024.0
20210304194031 59 96 4.0 9.0 0.00 0.00 0.00 59 1024.1
20210304193912 59 131 4.0 9.0 0.00 0.00 0.00 59 1024.0
20210304193812 59 96 3.0 9.0 0.00 0.00 0.00 59 1024.0
20210304193715 59 132 3.0 9.0 0.00 0.00 0.00 59 1024.0
20210304193613 59 89 3.0 9.0 0.00 0.00 0.00 60 1024.0
20210304193559 59 117 3.0 9.0 0.00 0.00 0.00 60 1024.0
20210304193533 59 109 3.0 9.0 0.00 0.00 0.00 61 1024.0
20210304193409 59 142 3.0 9.0 0.00 0.00 0.00 60 1024.0
20210304193346 59 186 3.0 9.0 0.00 0.00 0.00 60 1024.0
20210304193325 59 126 3.0 9.0 0.00 0.00 0.00 60 1024.0
20210304193237 59 127 3.0 9.0 0.00 0.00 0.00 61 1024.1
20210304193145 59 105 3.0 9.0 0.00 0.00 0.00 62 1024.0
20210304193126 59 133 2.0 6.0 0.00 0.00 0.00 63 1024.1
20210304193113 59 238 3.0 6.0 0.00 0.00 0.00 63 1024.0
20210304193047 59 190 2.0 6.0 0.00 0.00 0.00 62 1024.0
20210304193043 59 210 2.0 6.0 0.00 0.00 0.00 62 1024.0
20210304193035 59 224 2.0 6.0 0.00 0.00 0.00 62 1024.0
20210304192948 58 132 2.0 6.0 0.00 0.00 0.00 63 1024.0
20210304192924 58 107 2.0 6.0 0.00 0.00 0.00 61 1024.0
20210304192848 58 102 2.0 6.0 0.00 0.00 0.00 61 1024.0
20210304192723 58 99 2.0 6.0 0.00 0.00 0.00 61 1024.1
20210304192536 58 152 2.0 6.0 0.00 0.00 0.00 62 1024.0
20210304192221 58 146 2.0 6.0 0.00 0.00 0.00 62 1024.0
20210304192025 58 218 2.0 6.0 0.00 0.00 0.00 63 1024.1
20210304191851 58 248 2.0 6.0 0.00 0.00 0.00 63 1024.1
20210304191649 58 225 3.0 6.0 0.00 0.00 0.00 62 1024.1
20210304191602 58 193 3.0 6.0 0.00 0.00 0.00 62 1024.1
20210304191542 58 210 3.0 6.0 0.00 0.00 0.00 62 1024.1
20210304191445 58 214 3.0 6.0 0.00 0.00 0.00 63 1024.1
20210304191348 58 187 3.0 6.0 0.00 0.00 0.00 62 1024.1
20210304191244 58 101 2.0 6.0 0.00 0.00 0.00 62 1024.0
20210304191143 58 212 2.0 6.0 0.00 0.00 0.00 63 1024.1
20210304191100 58 203 2.0 6.0 0.00 0.00 0.00 63 1024.1
20210304191049 58 190 2.0 6.0 0.00 0.00 0.00 63 1024.1
20210304190938 58 195 2.0 6.0 0.00 0.00 0.00 63 1024.1
20210304190837 58 84 2.0 6.0 0.00 0.00 0.00 62 1024.1
20210304190736 58 87 2.0 6.0 0.00 0.00 0.00 63 1024.1
20210304190636 58 106 2.0 6.0 0.00 0.00 0.00 63 1024.1
20210304190611 58 143 2.0 6.0 0.00 0.00 0.00 63 1024.1
20210304190534 58 141 2.0 6.0 0.00 0.00 0.00 63 1024.1
20210304190436 58 154 2.0 6.0 0.00 0.00 0.00 63 1024.1
20210304190338 58 127 2.0 6.0 0.00 0.00 0.00 62 1024.1
20210304190238 58 124 2.0 6.0 0.00 0.00 0.00 62 1024.1
20210304190206 58 135 2.0 6.0 0.00 0.00 0.00 62 1024.1
20210304190142 58 130 2.0 6.0 0.00 0.00 0.00 62 1024.1
20210304190124 58 211 2.0 6.0 0.00 0.00 0.00 62 1024.1
20210304190057 58 170 2.0 6.0 0.00 0.00 0.00 63 1024.1
20210304190040 58 86 2.0 6.0 0.00 0.00 0.00 63 1024.1
20210304190013 58 150 2.0 6.0 0.00 0.00 0.00 63 1024.1
20210304185937 58 135 2.0 6.0 0.00 0.00 0.00 63 1024.2
20210304185935 58 129 1.0 6.0 0.00 0.00 0.00 63 1024.1
20210304185909 58 129 1.0 4.0 0.00 0.00 0.00 63 1024.1
20210304185901 58 155 1.0 4.0 0.00 0.00 0.00 64 1024.1
20210304185845 57 148 1.0 4.0 0.00 0.00 0.00 65 1024.1
20210304185823 57 143 1.0 4.0 0.00 0.00 0.00 66 1024.1
20210304185608 57 191 1.0 4.0 0.00 0.00 0.00 66 1024.2
20210304185529 57 200 1.0 4.0 0.00 0.00 0.00 66 1024.2
20210304185350 57 231 1.0 4.0 0.00 0.00 0.00 65 1024.2
20210304185224 57 217 1.0 4.0 0.00 0.00 0.00 65 1024.2
20210304184954 57 203 1.0 5.0 0.00 0.00 0.00 66 1024.2
20210304184737 56 1 2.0 6.0 0.00 0.00 0.00 66 1024.2
20210304184633 56 6 2.0 7.0 0.00 0.00 0.00 67 1024.2
20210304184617 56 55 2.0 7.0 0.00 0.00 0.00 67 1024.2
20210304184542 56 317 2.0 7.0 0.00 0.00 0.00 66 1024.3
20210304184412 56 321 2.0 7.0 0.00 0.00 0.00 66 1024.3
20210304184314 56 300 2.0 7.0 0.00 0.00 0.00 66 1024.2
20210304184213 56 257 2.0 7.0 0.00 0.00 0.00 65 1024.3
20210304184110 56 181 2.0 7.0 0.00 0.00 0.00 65 1024.3
20210304184103 56 181 2.0 7.0 0.00 0.00 0.00 65 1024.3
20210304184018 56 207 2.0 7.0 0.00 0.00 0.00 65 1024.2
20210304183859 57 198 2.0 7.0 0.00 0.00 0.00 65 1024.3
20210304183807 56 142 1.0 7.0 0.00 0.00 0.00 66 1024.2
20210304183709 56 134 1.0 6.0 0.00 0.00 0.00 66 1024.2
20210304183602 56 183 1.0 5.0 0.00 0.00 0.00 67 1024.2
20210304183456 56 115 1.0 5.0 0.00 0.00 0.00 68 1024.2
20210304183358 56 211 1.0 5.0 0.00 0.00 0.00 67 1024.2
20210304183313 56 212 1.0 5.0 0.00 0.00 0.00 67 1024.2
20210304183157 55 184 1.0 5.0 0.00 0.00 0.00 68 1024.2
20210304183111 55 203 1.0 5.0 0.00 0.00 0.00 68 1024.3
20210304182951 55 316 2.0 5.0 0.00 0.00 0.00 68 1024.3
20210304182916 55 316 2.0 5.0 0.00 0.00 0.00 68 1024.3
20210304182847 55 333 2.0 5.0 0.00 0.00 0.00 68 1024.3
20210304182834 55 343 2.0 5.0 0.00 0.00 0.00 68 1024.3
20210304182823 55 95 2.0 5.0 0.00 0.00 0.00 68 1024.3
20210304182806 55 150 2.0 5.0 0.00 0.00 0.00 68 1024.3
20210304182755 55 166 2.0 5.0 0.00 0.00 0.00 68 1024.4
20210304182703 55 148 2.0 5.0 0.00 0.00 0.00 68 1024.4
20210304182612 55 118 2.0 5.0 0.00 0.00 0.00 66 1024.4
20210304182349 55 92 2.0 5.0 0.00 0.00 0.00 67 1024.4
20210304182151 55 103 2.0 5.0 0.00 0.00 0.00 66 1024.4
20210304181949 55 143 2.0 5.0 0.00 0.00 0.00 66 1024.4
20210304181756 55 166 2.0 5.0 0.00 0.00 0.00 67 1024.4
20210304181636 55 128 2.0 5.0 0.00 0.00 0.00 67 1024.4
20210304181550 55 172 2.0 5.0 0.00 0.00 0.00 68 1024.4
20210304181433 55 186 2.0 4.0 0.00 0.00 0.00 68 1024.4
20210304181334 55 121 2.0 4.0 0.00 0.00 0.00 68 1024.4
20210304181233 55 180 2.0 4.0 0.00 0.00 0.00 68 1024.4
20210304181136 55 145 2.0 4.0 0.00 0.00 0.00 68 1024.4
20210304181055 55 194 2.0 5.0 0.00 0.00 0.00 68 1024.4
20210304180930 55 207 2.0 5.0 0.00 0.00 0.00 68 1024.4
20210304180822 54 203 2.0 6.0 0.00 0.00 0.00 69 1024.4
20210304180722 54 321 2.0 6.0 0.00 0.00 0.00 69 1024.4
20210304180626 54 222 2.0 6.0 0.00 0.00 0.00 70 1024.4
20210304180526 54 229 2.0 6.0 0.00 0.00 0.00 69 1024.4
20210304180420 54 124 2.0 6.0 0.00 0.00 0.00 69 1024.4
20210304180337 54 146 2.0 6.0 0.00 0.00 0.00 70 1024.4
20210304180326 54 205 2.0 6.0 0.00 0.00 0.00 70 1024.4
20210304180255 54 142 2.0 6.0 0.00 0.00 0.00 70 1024.4
20210304180224 54 224 2.0 6.0 0.00 0.00 0.00 69 1024.4
20210304180119 54 218 2.0 6.0 0.00 0.00 0.00 70 1024.3
20210304180043 54 195 2.0 6.0 0.00 0.00 0.00 70 1024.4
20210304175953 54 201 2.0 6.0 0.00 0.00 0.00 71 1024.4
20210304175930 54 231 2.0 6.0 0.00 0.00 0.00 70 1024.4
20210304175905 54 219 2.0 6.0 0.00 0.00 0.00 69 1024.4
20210304175825 54 127 1.0 6.0 0.00 0.00 0.00 69 1024.4
20210304175807 54 121 1.0 5.0 0.00 0.00 0.00 70 1024.4
20210304175609 54 98 1.0 4.0 0.00 0.00 0.00 70 1024.4
20210304175355 54 156 1.0 3.0 0.00 0.00 0.00 71 1024.4
20210304175201 54 189 1.0 3.0 0.00 0.00 0.00 71 1024.4
20210304174952 54 210 1.0 3.0 0.00 0.00 0.00 71 1024.4
20210304174825 53 141 1.0 3.0 0.00 0.00 0.00 72 1024.4
20210304174702 53 129 1.0 4.0 0.00 0.00 0.00 72 1024.3
20210304174614 53 230 1.0 4.0 0.00 0.00 0.00 72 1024.3
20210304174524 53 230 1.0 5.0 0.00 0.00 0.00 72 1024.2
20210304174357 53 214 1.0 5.0 0.00 0.00 0.00 72 1024.2
20210304174252 53 212 1.0 5.0 0.00 0.00 0.00 73 1024.3
20210304174152 53 231 1.0 5.0 0.00 0.00 0.00 73 1024.3
20210304174053 53 224 2.0 5.0 0.00 0.00 0.00 72 1024.3
20210304173954 53 210 2.0 5.0 0.00 0.00 0.00 72 1024.3
20210304173850 53 242 2.0 5.0 0.00 0.00 0.00 72 1024.3
20210304173753 53 162 1.0 5.0 0.00 0.00 0.00 73 1024.3
20210304173649 53 142 1.0 5.0 0.00 0.00 0.00 72 1024.3
20210304173550 53 200 1.0 5.0 0.00 0.00 0.00 74 1024.4
20210304173456 53 195 1.0 4.0 0.00 0.00 0.00 75 1024.4
20210304173343 53 119 1.0 5.0 0.00 0.00 0.00 75 1024.4
20210304173241 52 114 2.0 5.0 0.00 0.00 0.00 74 1024.4
20210304173141 52 175 2.0 5.0 0.00 0.00 0.00 73 1024.4
20210304173040 52 236 2.0 5.0 0.00 0.00 0.00 74 1024.4
20210304172945 52 205 2.0 5.0 0.00 0.00 0.00 74 1024.4
20210304172839 52 235 2.0 5.0 0.00 0.00 0.00 74 1024.4
20210304172828 52 245 2.0 5.0 0.00 0.00 0.00 75 1024.4
20210304172818 52 232 2.0 5.0 0.00 0.00 0.00 74 1024.4
20210304172810 52 212 2.0 5.0 0.00 0.00 0.00 75 1024.4
20210304172752 52 198 2.0 5.0 0.00 0.00 0.00 75 1024.4
20210304172714 51 214 2.0 5.0 0.00 0.00 0.00 75 1024.4
20210304172605 51 139 2.0 5.0 0.00 0.00 0.00 75 1024.4
20210304172451 51 229 2.0 5.0 0.00 0.00 0.00 75 1024.4
20210304172244 51 231 2.0 5.0 0.00 0.00 0.00 75 1024.4
20210304172142 51 230 2.0 5.0 0.00 0.00 0.00 75 1024.4
20210304171946 51 239 2.0 5.0 0.00 0.00 0.00 75 1024.4
20210304171815 51 231 2.0 5.0 0.00 0.00 0.00 76 1024.4
20210304171632 51 239 2.0 5.0 0.00 0.00 0.00 75 1024.4
20210304171554 51 218 2.0 5.0 0.00 0.00 0.00 75 1024.4
20210304171423 51 219 2.0 5.0 0.00 0.00 0.00 76 1024.3
20210304171315 51 190 2.0 5.0 0.00 0.00 0.00 76 1024.3
20210304171219 51 214 2.0 5.0 0.00 0.00 0.00 76 1024.4
20210304171116 51 148 2.0 5.0 0.00 0.00 0.00 76 1024.4
20210304171027 51 166 2.0 5.0 0.00 0.00 0.00 77 1024.3
20210304170944 51 194 2.0 5.0 0.00 0.00 0.00 77 1024.4
20210304170905 51 134 2.0 5.0 0.00 0.00 0.00 78 1024.4
20210304170819 50 146 2.0 5.0 0.00 0.00 0.00 77 1024.4
20210304170758 50 129 2.0 5.0 0.00 0.00 0.00 76 1024.4
20210304170739 50 232 1.0 5.0 0.00 0.00 0.00 77 1024.4
20210304170653 50 134 2.0 3.0 0.00 0.00 0.00 78 1024.4
20210304170606 50 198 2.0 3.0 0.00 0.00 0.00 78 1024.3
20210304170542 50 217 1.0 3.0 0.00 0.00 0.00 78 1024.3
20210304170441 50 203 1.0 3.0 0.00 0.00 0.00 78 1024.3
20210304170412 50 233 2.0 3.0 0.00 0.00 0.00 78 1024.3
20210304170331 49 193 2.0 4.0 0.00 0.00 0.00 79 1024.2
20210304170309 49 115 2.0 4.0 0.00 0.00 0.00 78 1024.2
20210304170306 49 132 2.0 4.0 0.00 0.00 0.00 78 1024.2
20210304170231 49 123 2.0 4.0 0.00 0.00 0.00 78 1024.2
20210304170142 49 187 2.0 4.0 0.00 0.00 0.00 79 1024.2
20210304170107 49 225 1.0 4.0 0.00 0.00 0.00 79 1024.2
20210304170050 49 163 2.0 4.0 0.00 0.00 0.00 80 1024.1
20210304170020 49 161 2.0 4.0 0.00 0.00 0.00 80 1024.1
20210304165905 49 159 2.0 4.0 0.00 0.00 0.00 79 1024.1
20210304165558 49 133 1.0 3.0 0.00 0.00 0.00 80 1024.1
20210304165325 49 130 1.0 3.0 0.00 0.00 0.00 80 1024.1
20210304164915 48 131 1.0 3.0 0.00 0.00 0.00 80 1024.1
20210304164643 48 139 1.0 3.0 0.00 0.00 0.00 80 1024.0
20210304164543 48 143 1.0 3.0 0.00 0.00 0.00 80 1024.0
20210304164448 48 129 1.0 3.0 0.00 0.00 0.00 80 1023.9
20210304164343 48 130 1.0 3.0 0.00 0.00 0.00 80 1023.9
20210304164243 48 144 1.0 3.0 0.00 0.00 0.00 81 1024.0
20210304164138 48 142 1.0 3.0 0.00 0.00 0.00 81 1024.0
20210304164118 48 132 1.0 3.0 0.00 0.00 0.00 81 1023.9
20210304164040 48 143 1.0 3.0 0.00 0.00 0.00 81 1023.9
20210304163849 47 89 1.0 3.0 0.00 0.00 0.00 81 1023.9
20210304163736 47 96 1.0 3.0 0.00 0.00 0.00 82 1023.9
20210304163630 47 67 1.0 3.0 0.00 0.00 0.00 82 1023.9
20210304163530 47 118 1.0 3.0 0.00 0.00 0.00 82 1023.9
20210304163427 47 96 1.0 3.0 0.00 0.00 0.00 82 1023.8
20210304163407 47 98 1.0 3.0 0.00 0.00 0.00 82 1023.8
20210304163358 47 91 1.0 3.0 0.00 0.00 0.00 82 1023.8
20210304163350 47 86 1.0 4.0 0.00 0.00 0.00 82 1023.8
20210304163327 47 91 1.0 4.0 0.00 0.00 0.00 83 1023.8
20210304163310 46 135 2.0 4.0 0.00 0.00 0.00 83 1023.7
20210304163255 46 96 2.0 4.0 0.00 0.00 0.00 84 1023.7
20210304163241 46 82 2.0 4.0 0.00 0.00 0.00 84 1023.7
20210304163227 46 150 2.0 4.0 0.00 0.00 0.00 84 1023.7
20210304163218 46 141 2.0 4.0 0.00 0.00 0.00 84 1023.7
20210304163134 46 65 2.0 4.0 0.00 0.00 0.00 83 1023.8
20210304162823 46 89 2.0 4.0 0.00 0.00 0.00 83 1023.7
20210304162520 46 65 1.0 4.0 0.00 0.00 0.00 83 1023.7
20210304162214 46 90 1.0 4.0 0.00 0.00 0.00 83 1023.7
20210304161634 46 95 1.0 4.0 0.00 0.00 0.00 83 1023.8
20210304161541 46 81 1.0 3.0 0.00 0.00 0.00 83 1023.8
20210304161412 46 85 1.0 2.0 0.00 0.00 0.00 83 1023.8
20210304161307 46 140 0.0 2.0 0.00 0.00 0.00 83 1023.7
20210304161208 46 125 0.0 2.0 0.00 0.00 0.00 83 1023.7
20210304161118 46 86 0.0 2.0 0.00 0.00 0.00 83 1023.7
20210304161056 46 86 1.0 2.0 0.00 0.00 0.00 84 1023.7
20210304161040 45 107 1.0 2.0 0.00 0.00 0.00 84 1023.7
20210304160858 45 107 1.0 2.0 0.00 0.00 0.00 84 1023.6
20210304160722 45 107 1.0 2.0 0.00 0.00 0.00 85 1023.7
20210304160559 45 155 0.0 2.0 0.00 0.00 0.00 85 1023.6
20210304160521 45 145 0.0 2.0 0.00 0.00 0.00 85 1023.6
20210304160430 45 145 0.0 2.0 0.00 0.00 0.00 85 1023.6
20210304160411 44 139 1.0 2.0 0.00 0.00 0.00 85 1023.6
20210304160354 44 105 1.0 2.0 0.00 0.00 0.00 86 1023.6
20210304160324 44 141 1.0 2.0 0.00 0.00 0.00 86 1023.6
20210304160230 44 102 1.0 2.0 0.00 0.00 0.00 86 1023.6
20210304160216 44 137 1.0 4.0 0.00 0.00 0.00 87 1023.6
20210304160159 44 96 1.0 4.0 0.00 0.00 0.00 87 1023.5
20210304160127 43 96 1.0 4.0 0.00 0.00 0.00 87 1023.5
20210304160113 43 96 1.0 4.0 0.00 0.00 0.00 87 1023.5
20210304160053 43 96 1.0 4.0 0.00 0.00 0.00 87 1023.5
20210304160047 43 91 1.0 4.0 0.00 0.00 0.00 87 1023.5
20210304160022 43 86 1.0 4.0 0.00 0.00 0.00 87 1023.4
20210304155918 43 136 1.0 4.0 0.00 0.00 0.00 87 1023.4
20210304155723 43 86 2.0 4.0 0.00 0.00 0.00 87 1023.4
20210304155511 42 84 2.0 4.0 0.00 0.00 0.00 87 1023.4
20210304155414 42 89 2.0 4.0 0.00 0.00 0.00 87 1023.4
20210304155305 42 137 2.0 4.0 0.00 0.00 0.00 87 1023.3
20210304155138 42 92 2.0 4.0 0.00 0.00 0.00 87 1023.3
20210304154651 42 129 2.0 4.0 0.00 0.00 0.00 87 1023.2
20210304154435 42 98 2.0 4.0 0.00 0.00 0.00 87 1023.2
20210304154339 42 102 2.0 4.0 0.00 0.00 0.00 87 1023.2
20210304154243 42 105 2.0 4.0 0.00 0.00 0.00 87 1023.2
20210304154131 42 96 1.0 4.0 0.00 0.00 0.00 87 1023.2
20210304154102 42 88 1.0 4.0 0.00 0.00 0.00 88 1023.2
20210304154029 42 101 1.0 3.0 0.00 0.00 0.00 88 1023.1
20210304153836 42 79 1.0 3.0 0.00 0.00 0.00 88 1023.2
20210304153739 42 92 1.0 3.0 0.00 0.00 0.00 88 1023.2
20210304153627 42 75 1.0 3.0 0.00 0.00 0.00 88 1023.2
20210304153543 42 108 1.0 3.0 0.00 0.00 0.00 88 1023.1
20210304153511 42 88 1.0 3.0 0.00 0.00 0.00 89 1023.1
20210304153427 42 99 1.0 2.0 0.00 0.00 0.00 89 1023.1
20210304153400 42 99 1.0 2.0 0.00 0.00 0.00 89 1023.0
20210304153320 41 99 1.0 2.0 0.00 0.00 0.00 89 1023.0
20210304153258 41 122 1.0 2.0 0.00 0.00 0.00 89 1023.0
20210304153234 41 110 1.0 3.0 0.00 0.00 0.00 89 1023.0
20210304153221 41 136 1.0 3.0 0.00 0.00 0.00 89 1023.0
20210304153204 41 95 1.0 3.0 0.00 0.00 0.00 89 1023.0
20210304153133 41 95 1.0 3.0 0.00 0.00 0.00 89 1023.0
20210304153036 41 103 1.0 3.0 0.00 0.00 0.00 89 1022.9
20210304152957 40 90 1.0 3.0 0.00 0.00 0.00 89 1022.9
20210304152944 40 91 1.0 3.0 0.00 0.00 0.00 89 1022.9
20210304152938 40 103 1.0 3.0 0.00 0.00 0.00 89 1022.9
20210304152919 40 94 1.0 3.0 0.00 0.00 0.00 89 1022.8
20210304152846 40 81 1.0 3.0 0.00 0.00 0.00 89 1022.8
20210304152424 40 99 1.0 2.0 0.00 0.00 0.00 89 1022.8
20210304152237 40 99 1.0 3.0 0.00 0.00 0.00 90 1022.8
20210304152131 40 91 1.0 3.0 0.00 0.00 0.00 90 1022.7
20210304151555 40 101 1.0 3.0 0.00 0.00 0.00 90 1022.7
20210304151455 40 92 1.0 3.0 0.00 0.00 0.00 90 1022.7
20210304151356 40 89 1.0 3.0 0.00 0.00 0.00 90 1022.7
20210304151259 40 96 1.0 3.0 0.00 0.00 0.00 90 1022.7
20210304151156 40 93 1.0 3.0 0.00 0.00 0.00 90 1022.7
20210304151048 40 101 1.0 3.0 0.00 0.00 0.00 90 1022.8
20210304150948 40 94 1.0 3.0 0.00 0.00 0.00 90 1022.7
20210304150849 40 94 1.0 3.0 0.00 0.00 0.00 90 1022.8
20210304150837 40 91 0.0 3.0 0.00 0.00 0.00 90 1022.8
20210304150824 39 95 0.0 2.0 0.00 0.00 0.00 90 1022.8
20210304150630 39 94 0.0 2.0 0.00 0.00 0.00 90 1022.8
20210304150446 39 92 0.0 2.0 0.00 0.00 0.00 90 1022.8
20210304150434 39 92 0.0 2.0 0.00 0.00 0.00 90 1022.8
20210304150423 39 92 0.0 2.0 0.00 0.00 0.00 90 1022.8
20210304150351 39 92 0.0 1.0 0.00 0.00 0.00 90 1022.9
20210304150321 39 92 0.0 1.0 0.00 0.00 0.00 90 1022.8
20210304150156 39 92 0.0 1.0 0.00 0.00 0.00 90 1022.9
20210304150140 39 92 0.0 1.0 0.00 0.00 0.00 90 1022.9
20210304150128 39 92 0.0 1.0 0.00 0.00 0.00 90 1022.9
20210304150100 39 92 0.0 1.0 0.00 0.00 0.00 90 1022.8
20210304150051 39 92 0.0 2.0 0.00 0.00 0.00 90 1022.8
20210304150031 39 92 0.0 2.0 0.00 0.00 0.00 90 1022.8
20210304145945 38 92 0.0 2.0 0.00 0.00 0.00 90 1022.7
20210304145931 38 92 0.0 2.0 0.00 0.00 0.00 90 1022.8
20210304145906 38 92 0.0 2.0 0.00 0.00 0.00 90 1022.7
20210304145846 38 92 0.0 2.0 0.00 0.00 0.00 90 1022.7
20210304145358 38 91 0.0 2.0 0.00 0.00 0.00 90 1022.7
20210304145253 38 92 0.0 2.0 0.00 0.00 0.00 90 1022.7
20210304145029 38 92 0.0 2.0 0.00 0.00 0.00 90 1022.7
20210304144752 38 92 0.0 2.0 0.00 0.00 0.00 90 1022.7
20210304144539 38 92 0.0 1.0 0.00 0.00 0.00 90 1022.7
20210304144446 38 92 0.0 1.0 0.00 0.00 0.00 90 1022.7
20210304144317 38 92 0.0 1.0 0.00 0.00 0.00 90 1022.7
20210304144222 38 92 0.0 1.0 0.00 0.00 0.00 90 1022.7
20210304144132 38 92 0.0 1.0 0.00 0.00 0.00 90 1022.7
20210304144036 38 92 0.0 1.0 0.00 0.00 0.00 90 1022.7
20210304143915 38 92 0.0 1.0 0.00 0.00 0.00 90 1022.6
20210304143814 38 92 0.0 1.0 0.00 0.00 0.00 90 1022.6
20210304143720 38 92 0.0 1.0 0.00 0.00 0.00 90 1022.6
20210304143619 38 92 0.0 1.0 0.00 0.00 0.00 90 1022.6
20210304143518 38 92 0.0 1.0 0.00 0.00 0.00 90 1022.6
20210304143414 38 92 0.0 1.0 0.00 0.00 0.00 90 1022.6
20210304143314 38 92 0.0 1.0 0.00 0.00 0.00 90 1022.5
20210304143208 38 92 0.0 1.0 0.00 0.00 0.00 90 1022.5
20210304143111 38 92 0.0 1.0 0.00 0.00 0.00 90 1022.5
20210304143009 38 92 0.0 1.0 0.00 0.00 0.00 90 1022.5
20210304142902 39 92 0.0 1.0 0.00 0.00 0.00 90 1022.5
20210304142823 39 92 0.0 1.0 0.00 0.00 0.00 90 1022.5
20210304142814 39 92 0.0 1.0 0.00 0.00 0.00 90 1022.5
20210304142805 39 92 0.0 1.0 0.00 0.00 0.00 90 1022.5
20210304142741 39 92 0.0 1.0 0.00 0.00 0.00 90 1022.5
20210304142722 39 92 0.0 0.0 0.00 0.00 0.00 90 1022.5
20210304142636 39 92 0.0 0.0 0.00 0.00 0.00 90 1022.6
20210304142446 39 92 0.0 1.0 0.00 0.00 0.00 90 1022.5
20210304142234 39 92 0.0 1.0 0.00 0.00 0.00 90 1022.5
20210304141957 39 92 0.0 1.0 0.00 0.00 0.00 90 1022.5
20210304141905 39 92 0.0 1.0 0.00 0.00 0.00 90 1022.5
20210304141747 39 92 0.0 1.0 0.00 0.00 0.00 90 1022.4
20210304141648 39 92 0.0 1.0 0.00 0.00 0.00 90 1022.4
20210304141549 39 92 0.0 1.0 0.00 0.00 0.00 90 1022.4
20210304141448 39 92 0.0 1.0 0.00 0.00 0.00 90 1022.4
20210304141409 39 92 0.0 1.0 0.00 0.00 0.00 90 1022.4
20210304141244 39 92 1.0 2.0 0.00 0.00 0.00 90 1022.3
20210304141142 39 92 0.0 2.0 0.00 0.00 0.00 90 1022.2
20210304141102 39 92 0.0 2.0 0.00 0.00 0.00 90 1022.2
20210304140937 39 92 1.0 2.0 0.00 0.00 0.00 90 1022.2
20210304140841 39 92 1.0 2.0 0.00 0.00 0.00 90 1022.1
20210304140736 39 92 1.0 2.0 0.00 0.00 0.00 90 1022.2
20210304140640 39 92 1.0 2.0 0.00 0.00 0.00 90 1022.1
20210304140540 39 92 1.0 2.0 0.00 0.00 0.00 90 1022.1
20210304140431 39 91 1.0 2.0 0.00 0.00 0.00 90 1022.1
20210304140330 39 91 1.0 2.0 0.00 0.00 0.00 90 1022.1
20210304140236 39 93 1.0 2.0 0.00 0.00 0.00 90 1022.1
20210304140137 39 101 1.0 2.0 0.00 0.00 0.00 90 1022.1
20210304140044 39 101 1.0 2.0 0.00 0.00 0.00 90 1022.0
20210304135925 39 94 1.0 2.0 0.00 0.00 0.00 90 1022.0
20210304135831 39 94 1.0 2.0 0.00 0.00 0.00 90 1022.0
20210304135817 39 95 1.0 2.0 0.00 0.00 0.00 90 1022.1
20210304135804 39 95 1.0 2.0 0.00 0.00 0.00 90 1022.1
20210304135742 39 92 1.0 2.0 0.00 0.00 0.00 90 1022.1
20210304135724 39 92 0.0 2.0 0.00 0.00 0.00 90 1022.0
20210304135653 39 92 0.0 2.0 0.00 0.00 0.00 90 1022.1
20210304135552 39 92 0.0 2.0 0.00 0.00 0.00 90 1022.1
20210304135426 39 97 0.0 1.0 0.00 0.00 0.00 90 1022.1
20210304135124 39 98 0.0 2.0 0.00 0.00 0.00 90 1022.0
20210304134916 39 98 0.0 2.0 0.00 0.00 0.00 90 1022.1
20210304134816 39 98 0.0 2.0 0.00 0.00 0.00 90 1022.1
20210304134717 39 97 0.0 2.0 0.00 0.00 0.00 90 1022.0
20210304134615 39 98 0.0 2.0 0.00 0.00 0.00 90 1022.0
20210304134522 39 98 1.0 2.0 0.00 0.00 0.00 90 1022.0
20210304134412 39 97 1.0 3.0 0.00 0.00 0.00 90 1022.0
20210304134306 39 98 1.0 3.0 0.00 0.00 0.00 90 1022.0
20210304134207 39 98 1.0 3.0 0.00 0.00 0.00 90 1021.9
20210304134106 39 91 1.0 3.0 0.00 0.00 0.00 90 1021.9
20210304134023 39 130 1.0 3.0 0.00 0.00 0.00 90 1022.0
20210304133906 39 129 0.0 3.0 0.00 0.00 0.00 90 1021.9
20210304133804 39 83 0.0 3.0 0.00 0.00 0.00 89 1021.9
20210304133703 39 131 0.0 3.0 0.00 0.00 0.00 90 1021.9
20210304133606 39 95 0.0 3.0 0.00 0.00 0.00 89 1021.9
20210304133518 39 95 0.0 3.0 0.00 0.00 0.00 89 1021.9
20210304133356 39 99 0.0 1.0 0.00 0.00 0.00 89 1021.9
20210304133257 39 99 0.0 1.0 0.00 0.00 0.00 89 1021.8
20210304133217 39 99 0.0 1.0 0.00 0.00 0.00 89 1021.8
20210304133116 39 99 0.0 1.0 0.00 0.00 0.00 89 1021.8
20210304132955 39 99 0.0 1.0 0.00 0.00 0.00 89 1021.8
20210304132905 40 99 1.0 2.0 0.00 0.00 0.00 89 1021.6
20210304132852 40 99 1.0 2.0 0.00 0.00 0.00 89 1021.6
20210304132836 40 92 0.0 2.0 0.00 0.00 0.00 89 1021.6
20210304132718 40 92 0.0 2.0 0.00 0.00 0.00 89 1021.6
20210304132619 40 91 0.0 2.0 0.00 0.00 0.00 89 1021.6
20210304132207 40 92 0.0 2.0 0.00 0.00 0.00 89 1021.6
20210304132022 40 92 0.0 2.0 0.00 0.00 0.00 89 1021.6
20210304131749 40 92 0.0 2.0 0.00 0.00 0.00 89 1021.6
20210304131638 40 92 0.0 2.0 0.00 0.00 0.00 89 1021.6
20210304131554 40 92 0.0 2.0 0.00 0.00 0.00 89 1021.5
20210304131440 40 92 0.0 2.0 0.00 0.00 0.00 89 1021.5
20210304131334 40 92 0.0 2.0 0.00 0.00 0.00 89 1021.6
20210304131229 40 92 0.0 2.0 0.00 0.00 0.00 89 1021.5
20210304131154 40 92 0.0 2.0 0.00 0.00 0.00 89 1021.5
20210304131120 40 92 0.0 2.0 0.00 0.00 0.00 89 1021.5
20210304130935 40 94 0.0 1.0 0.00 0.00 0.00 89 1021.5
20210304130838 40 95 0.0 1.0 0.00 0.00 0.00 89 1021.5
20210304130728 40 95 0.0 1.0 0.00 0.00 0.00 89 1021.5
20210304130630 40 95 0.0 0.0 0.00 0.00 0.00 89 1021.5
20210304130525 40 95 0.0 0.0 0.00 0.00 0.00 89 1021.5
20210304130435 40 95 0.0 0.0 0.00 0.00 0.00 89 1021.5
20210304130343 40 95 0.0 0.0 0.00 0.00 0.00 89 1021.5
20210304130255 40 95 0.0 0.0 0.00 0.00 0.00 89 1021.5
20210304130121 40 94 0.0 0.0 0.00 0.00 0.00 89 1021.4
20210304130034 40 95 0.0 0.0 0.00 0.00 0.00 89 1021.5
20210304125920 40 95 0.0 0.0 0.00 0.00 0.00 89 1021.4
20210304125812 40 95 0.0 1.0 0.00 0.00 0.00 89 1021.5
20210304125734 40 95 0.0 1.0 0.00 0.00 0.00 89 1021.5
20210304125723 40 95 0.0 1.0 0.00 0.00 0.00 89 1021.5
20210304125710 40 95 0.0 1.0 0.00 0.00 0.00 89 1021.5
20210304125645 40 95 0.0 1.0 0.00 0.00 0.00 89 1021.5
20210304125535 40 94 0.0 1.0 0.00 0.00 0.00 89 1021.4
20210304125435 40 95 0.0 1.0 0.00 0.00 0.00 89 1021.4
20210304125325 40 95 0.0 2.0 0.00 0.00 0.00 89 1021.3
20210304125209 41 95 0.0 2.0 0.00 0.00 0.00 89 1021.3
20210304125023 41 94 0.0 2.0 0.00 0.00 0.00 89 1021.3
20210304124820 41 95 0.0 2.0 0.00 0.00 0.00 89 1021.2
20210304124706 41 95 1.0 2.0 0.00 0.00 0.00 89 1021.2
20210304124606 41 94 1.0 2.0 0.00 0.00 0.00 89 1021.2
20210304124529 41 95 1.0 2.0 0.00 0.00 0.00 89 1021.1
20210304124404 41 96 1.0 2.0 0.00 0.00 0.00 89 1021.1
20210304124258 41 89 1.0 2.0 0.00 0.00 0.00 89 1021.1
20210304124154 41 89 1.0 2.0 0.00 0.00 0.00 89 1021.0
20210304124101 41 91 0.0 2.0 0.00 0.00 0.00 89 1021.0
20210304123957 41 92 0.0 2.0 0.00 0.00 0.00 89 1021.0
20210304123857 41 91 0.0 2.0 0.00 0.00 0.00 89 1021.0
20210304123749 41 89 0.0 2.0 0.00 0.00 0.00 89 1021.0
20210304123651 41 89 0.0 2.0 0.00 0.00 0.00 89 1021.0
20210304123551 41 84 0.0 2.0 0.00 0.00 0.00 89 1021.0
20210304123520 41 115 0.0 1.0 0.00 0.00 0.00 89 1021.0
20210304123350 41 116 0.0 1.0 0.00 0.00 0.00 89 1021.0
20210304123311 41 115 0.0 1.0 0.00 0.00 0.00 89 1021.0
20210304123206 42 139 0.0 1.0 0.00 0.00 0.00 89 1020.9
20210304123126 42 139 0.0 1.0 0.00 0.00 0.00 89 1020.9
20210304123114 42 138 0.0 1.0 0.00 0.00 0.00 89 1020.9
20210304123108 42 139 0.0 1.0 0.00 0.00 0.00 89 1020.9
20210304122953 42 139 0.0 1.0 0.00 0.00 0.00 89 1020.8
20210304122915 42 139 0.0 1.0 0.00 0.00 0.00 89 1020.9
20210304122709 42 138 0.0 1.0 0.00 0.00 0.00 89 1020.9
20210304122334 42 139 0.0 1.0 0.00 0.00 0.00 88 1020.9
20210304122056 42 139 0.0 1.0 0.00 0.00 0.00 88 1020.9
20210304121945 42 138 0.0 1.0 0.00 0.00 0.00 89 1020.9
20210304121741 42 139 0.0 1.0 0.00 0.00 0.00 89 1020.9
20210304121626 42 139 0.0 1.0 0.00 0.00 0.00 89 1020.9
20210304121527 42 139 0.0 1.0 0.00 0.00 0.00 89 1020.9
20210304121425 42 139 0.0 1.0 0.00 0.00 0.00 88 1020.9
20210304121352 42 139 0.0 1.0 0.00 0.00 0.00 88 1020.9
20210304121327 42 138 0.0 1.0 0.00 0.00 0.00 89 1020.9
20210304121223 42 138 0.0 1.0 0.00 0.00 0.00 89 1020.9
20210304121120 42 138 0.0 1.0 0.00 0.00 0.00 88 1020.8
20210304121026 42 139 0.0 1.0 0.00 0.00 0.00 88 1020.8
20210304120918 42 138 0.0 1.0 0.00 0.00 0.00 88 1020.8
20210304120854 42 138 0.0 2.0 0.00 0.00 0.00 88 1020.7
20210304120823 42 138 0.0 3.0 0.00 0.00 0.00 88 1020.8
20210304120713 42 139 0.0 3.0 0.00 0.00 0.00 88 1020.7
20210304120613 42 138 0.0 3.0 0.00 0.00 0.00 88 1020.7
20210304120527 43 139 0.0 3.0 0.00 0.00 0.00 88 1020.7
20210304120412 43 138 0.0 3.0 0.00 0.00 0.00 88 1020.7
20210304120402 43 139 0.0 3.0 0.00 0.00 0.00 88 1020.7
20210304120335 43 139 0.0 3.0 0.00 0.00 0.00 88 1020.7
20210304120306 43 129 0.0 3.0 0.00 0.00 0.00 88 1020.7
20210304120254 43 155 0.0 3.0 0.00 0.00 0.00 88 1020.7
20210304120211 43 174 0.0 3.0 0.00 0.00 0.00 88 1020.7
20210304120154 43 176 0.0 3.0 0.00 0.00 0.00 88 1020.7
20210304120149 43 195 0.0 3.0 0.00 0.00 0.00 88 1020.7
20210304120126 43 158 0.0 3.0 0.00 0.00 0.00 88 1020.7
20210304120104 43 165 0.0 2.0 0.00 0.00 0.00 88 1020.6
20210304120051 43 172 0.0 2.0 0.00 0.00 0.00 88 1020.6
20210304115935 43 162 0.0 2.0 0.00 0.00 0.00 88 1020.6
20210304115916 43 158 0.0 2.0 0.00 0.00 0.00 88 1020.6
20210304115822 43 188 0.0 1.0 0.00 0.00 0.00 88 1020.6
20210304115624 43 188 0.0 1.0 0.00 0.00 0.00 88 1020.5
20210304115436 43 159 0.0 1.0 0.00 0.00 0.00 88 1020.5
20210304115202 43 159 0.0 1.0 0.00 0.00 0.00 88 1020.5
20210304114856 43 143 0.0 2.0 0.00 0.00 0.00 88 1020.5
20210304114754 43 142 0.0 2.0 0.00 0.00 0.00 88 1020.5
20210304114711 43 142 0.0 2.0 0.00 0.00 0.00 88 1020.5
20210304114558 43 143 0.0 2.0 0.00 0.00 0.00 88 1020.5
20210304114450 43 143 0.0 2.0 0.00 0.00 0.00 88 1020.4
20210304114356 43 134 0.0 2.0 0.00 0.00 0.00 88 1020.4
20210304114251 43 127 0.0 2.0 0.00 0.00 0.00 88 1020.4
20210304114156 43 127 0.0 2.0 0.00 0.00 0.00 88 1020.4
20210304114102 44 127 0.0 2.0 0.00 0.00 0.00 88 1020.4
20210304114032 44 193 1.0 3.0 0.00 0.00 0.00 87 1020.3
20210304113848 44 132 1.0 3.0 0.00 0.00 0.00 87 1020.3
20210304113842 44 133 1.0 3.0 0.00 0.00 0.00 87 1020.3
20210304113742 44 123 1.0 3.0 0.00 0.00 0.00 87 1020.3
20210304113641 44 123 1.0 3.0 0.00 0.00 0.00 87 1020.3
20210304113543 44 242 1.0 3.0 0.00 0.00 0.00 87 1020.3
20210304113439 44 242 2.0 4.0 0.00 0.00 0.00 87 1020.3
20210304113345 44 180 2.0 8.0 0.00 0.00 0.00 87 1020.3
20210304113342 44 152 2.0 9.0 0.00 0.00 0.00 87 1020.3
20210304113302 44 205 2.0 9.0 0.00 0.00 0.00 87 1020.3
20210304113217 44 217 3.0 9.0 0.00 0.00 0.00 87 1020.3
20210304113141 44 188 3.0 9.0 0.00 0.00 0.00 87 1020.3
20210304113105 44 175 3.0 9.0 0.00 0.00 0.00 87 1020.3
20210304113038 44 187 3.0 9.0 0.00 0.00 0.00 87 1020.2
20210304113036 44 215 3.0 9.0 0.00 0.00 0.00 87 1020.2
20210304113020 44 195 3.0 9.0 0.00 0.00 0.00 87 1020.1
20210304112950 44 212 3.0 9.0 0.00 0.00 0.00 88 1020.1
20210304112851 44 210 3.0 9.0 0.00 0.00 0.00 88 1020.1
20210304112833 44 200 3.0 9.0 0.00 0.00 0.00 87 1020.1
20210304112822 44 238 2.0 9.0 0.00 0.00 0.00 87 1020.1
20210304112819 44 165 2.0 6.0 0.00 0.00 0.00 87 1020.1
20210304112737 44 233 2.0 6.0 0.00 0.00 0.00 88 1020.1
20210304112542 44 195 2.0 6.0 0.00 0.00 0.00 88 1020.1
20210304112339 44 209 2.0 6.0 0.00 0.00 0.00 87 1020.0
20210304112143 44 217 2.0 5.0 0.00 0.00 0.00 87 1020.0
20210304111958 44 239 2.0 5.0 0.00 0.00 0.00 87 1020.0
20210304111929 44 217 2.0 4.0 0.00 0.00 0.00 87 1020.0
20210304111755 44 191 2.0 4.0 0.00 0.00 0.00 87 1020.0
20210304111632 44 179 1.0 4.0 0.00 0.00 0.00 87 1020.0
20210304111529 44 196 1.0 4.0 0.00 0.00 0.00 87 1020.0
20210304111427 44 223 1.0 4.0 0.00 0.00 0.00 87 1020.0
20210304111324 44 208 1.0 4.0 0.00 0.00 0.00 87 1020.0
20210304111226 44 190 1.0 4.0 0.00 0.00 0.00 87 1019.9
20210304111124 44 145 1.0 4.0 0.00 0.00 0.00 87 1020.0
20210304111027 44 190 1.0 4.0 0.00 0.00 0.00 87 1019.9
20210304110925 44 228 1.0 3.0 0.00 0.00 0.00 87 1019.9
20210304110840 44 192 1.0 3.0 0.00 0.00 0.00 87 1019.9
20210304110818 44 165 1.0 3.0 0.00 0.00 0.00 87 1019.9
20210304110727 44 201 1.0 3.0 0.00 0.00 0.00 87 1019.8
20210304110632 44 201 1.0 3.0 0.00 0.00 0.00 87 1019.8
20210304110542 44 204 1.0 3.0 0.00 0.00 0.00 87 1019.8
20210304110445 44 194 1.0 3.0 0.00 0.00 0.00 87 1019.7
20210304110433 44 180 1.0 3.0 0.00 0.00 0.00 87 1019.7
20210304110430 44 201 1.0 3.0 0.00 0.00 0.00 87 1019.7
20210304110412 44 142 1.0 3.0 0.00 0.00 0.00 86 1019.8
20210304110354 44 205 1.0 3.0 0.00 0.00 0.00 86 1019.7
20210304110318 44 136 1.0 4.0 0.00 0.00 0.00 86 1019.7
20210304110255 44 187 1.0 4.0 0.00 0.00 0.00 86 1019.7
20210304110244 44 198 1.0 4.0 0.00 0.00 0.00 86 1019.7
20210304110233 44 198 1.0 4.0 0.00 0.00 0.00 86 1019.6
20210304110138 44 142 1.0 4.0 0.00 0.00 0.00 86 1019.5
20210304110114 44 193 1.0 4.0 0.00 0.00 0.00 86 1019.6
20210304110054 45 187 1.0 4.0 0.00 0.00 0.00 86 1019.5
20210304105958 45 205 1.0 4.0 0.00 0.00 0.00 86 1019.6
20210304105940 45 164 1.0 4.0 0.00 0.00 0.00 86 1019.5
20210304105912 45 139 1.0 4.0 0.00 0.00 0.00 86 1019.5
20210304105900 45 193 1.0 4.0 0.00 0.00 0.00 86 1019.5
20210304105809 45 210 1.0 4.0 0.00 0.00 0.00 86 1019.4
20210304105530 45 162 1.0 5.0 0.00 0.00 0.00 86 1019.4
20210304105246 45 156 1.0 5.0 0.00 0.00 0.00 86 1019.4
20210304105108 45 175 2.0 5.0 0.00 0.00 0.00 86 1019.4
20210304104943 45 191 2.0 5.0 0.00 0.00 0.00 86 1019.4
20210304104711 45 160 2.0 5.0 0.00 0.00 0.00 86 1019.4
20210304104556 45 205 2.0 5.0 0.00 0.00 0.00 86 1019.4
20210304104457 45 144 2.0 5.0 0.00 0.00 0.00 86 1019.4
20210304104349 45 162 3.0 5.0 0.00 0.00 0.00 86 1019.4
20210304104317 45 140 3.0 6.0 0.00 0.00 0.00 86 1019.4
20210304104253 45 170 3.0 7.0 0.00 0.00 0.00 86 1019.4
20210304104149 45 148 3.0 9.0 0.00 0.00 0.00 86 1019.4
20210304104049 45 180 3.0 9.0 0.00 0.00 0.00 86 1019.4
20210304103949 45 221 4.0 9.0 0.00 0.00 0.00 86 1019.4
20210304103842 45 205 4.0 9.0 0.00 0.00 0.00 85 1019.4
20210304103803 45 245 4.0 9.0 0.00 0.00 0.00 85 1019.4
20210304103742 45 238 4.0 9.0 0.00 0.00 0.00 85 1019.4
20210304103645 45 197 4.0 9.0 0.00 0.00 0.00 85 1019.4
20210304103551 45 245 4.0 9.0 0.00 0.00 0.00 85 1019.4
20210304103442 45 222 4.0 9.0 0.00 0.00 0.00 85 1019.4
20210304103345 45 225 4.0 9.0 0.00 0.00 0.00 86 1019.4
20210304103258 45 203 4.0 9.0 0.00 0.00 0.00 86 1019.4
20210304103251 45 214 4.0 9.0 0.00 0.00 0.00 85 1019.4
20210304103147 45 300 4.0 8.0 0.00 0.00 0.00 85 1019.3
20210304103043 45 248 4.0 8.0 0.00 0.00 0.00 85 1019.4
20210304102936 45 193 4.0 9.0 0.00 0.00 0.00 85 1019.3
20210304102839 45 232 4.0 9.0 0.00 0.00 0.00 85 1019.3
20210304102835 45 229 4.0 9.0 0.00 0.00 0.00 85 1019.3
20210304102833 45 190 4.0 9.0 0.00 0.00 0.00 85 1019.3
20210304102820 45 187 4.0 9.0 0.00 0.00 0.00 85 1019.2
20210304102750 45 173 4.0 10.0 0.00 0.00 0.00 85 1019.2
20210304102728 45 176 4.0 10.0 0.00 0.00 0.00 85 1019.2
20210304102632 45 224 4.0 10.0 0.00 0.00 0.00 85 1019.2
20210304102602 45 205 4.0 10.0 0.00 0.00 0.00 85 1019.2
20210304102533 45 239 4.0 10.0 0.00 0.00 0.00 85 1019.2
20210304102415 45 214 5.0 10.0 0.00 0.00 0.00 85 1019.2
20210304102307 45 145 5.0 10.0 0.00 0.00 0.00 85 1019.2
20210304102048 46 187 5.0 10.0 0.00 0.00 0.00 85 1019.2
20210304101834 46 224 5.0 10.0 0.00 0.00 0.00 85 1019.2
20210304101739 46 239 5.0 10.0 0.00 0.00 0.00 85 1019.2
20210304101719 46 273 5.0 10.0 0.00 0.00 0.00 85 1019.1
20210304101619 46 225 4.0 9.0 0.00 0.00 0.00 85 1019.1
20210304101521 46 215 4.0 9.0 0.00 0.00 0.00 85 1019.1
20210304101420 46 200 4.0 9.0 0.00 0.00 0.00 85 1019.1
20210304101319 46 194 4.0 9.0 0.00 0.00 0.00 85 1019.1
20210304101233 46 228 4.0 9.0 0.00 0.00 0.00 85 1019.1
20210304101211 46 208 4.0 9.0 0.00 0.00 0.00 85 1019.1
20210304101111 46 224 4.0 8.0 0.00 0.00 0.00 85 1019.1
20210304101020 46 256 4.0 8.0 0.00 0.00 0.00 85 1019.1
20210304100911 46 229 4.0 8.0 0.00 0.00 0.00 85 1019.1
20210304100812 46 155 4.0 9.0 0.00 0.00 0.00 85 1019.1
20210304100727 46 184 4.0 9.0 0.00 0.00 0.00 85 1019.1
20210304100706 46 226 4.0 9.0 0.00 0.00 0.00 85 1019.0
20210304100605 46 216 4.0 9.0 0.00 0.00 0.00 85 1019.0
20210304100522 46 203 4.0 9.0 0.00 0.00 0.00 85 1018.9
20210304100414 46 238 4.0 9.0 0.00 0.00 0.00 85 1018.9
20210304100322 46 248 4.0 13.0 0.00 0.00 0.00 85 1018.9
20210304100226 46 228 4.0 13.0 0.00 0.00 0.00 85 1018.9
20210304100208 46 198 4.0 13.0 0.00 0.00 0.00 85 1018.9
20210304100131 46 218 4.0 13.0 0.00 0.00 0.00 85 1018.8
20210304100024 46 203 4.0 13.0 0.00 0.00 0.00 85 1018.9
20210304095927 46 233 4.0 13.0 0.00 0.00 0.00 85 1018.9
20210304095907 46 239 4.0 13.0 0.00 0.00 0.00 85 1018.8
20210304095858 46 217 4.0 13.0 0.00 0.00 0.00 85 1018.9
20210304095852 46 231 4.0 13.0 0.00 0.00 0.00 85 1018.9
20210304095828 46 233 4.0 13.0 0.00 0.00 0.00 85 1018.9
20210304095806 46 226 4.0 13.0 0.00 0.00 0.00 85 1018.8
20210304095736 46 224 4.0 13.0 0.00 0.00 0.00 85 1018.8
20210304095625 46 205 4.0 12.0 0.00 0.00 0.00 85 1018.8
20210304095458 46 238 4.0 10.0 0.00 0.00 0.00 85 1018.8
20210304095451 46 188 4.0 10.0 0.00 0.00 0.00 85 1018.8
20210304095337 46 231 4.0 10.0 0.00 0.00 0.00 85 1018.8
20210304095119 46 208 4.0 10.0 0.00 0.00 0.00 85 1018.8
20210304094909 46 257 4.0 10.0 0.00 0.00 0.00 85 1018.8
20210304094810 46 233 4.0 10.0 0.00 0.00 0.00 85 1018.8
20210304094703 46 235 4.0 10.0 0.00 0.00 0.00 85 1018.8
20210304094647 46 195 4.0 10.0 0.00 0.00 0.00 85 1018.8
20210304094546 46 253 4.0 10.0 0.00 0.00 0.00 85 1018.7
20210304094446 46 218 4.0 10.0 0.00 0.00 0.00 85 1018.7
20210304094342 46 217 4.0 10.0 0.00 0.00 0.00 85 1018.7
20210304094243 46 205 4.0 7.0 0.00 0.00 0.00 84 1018.7
20210304094158 46 229 4.0 8.0 0.00 0.00 0.00 84 1018.7
20210304094137 46 193 4.0 8.0 0.00 0.00 0.00 84 1018.7
20210304094036 46 230 4.0 8.0 0.00 0.00 0.00 84 1018.7
20210304093950 46 225 4.0 8.0 0.00 0.00 0.00 84 1018.7
20210304093933 46 205 4.0 8.0 0.00 0.00 0.00 84 1018.7
20210304093805 46 229 4.0 8.0 0.00 0.00 0.00 84 1018.6
20210304093702 46 208 4.0 8.0 0.00 0.00 0.00 84 1018.7
20210304093633 46 236 4.0 8.0 0.00 0.00 0.00 84 1018.7
20210304093534 46 217 4.0 8.0 0.00 0.00 0.00 84 1018.6
20210304093436 46 219 4.0 8.0 0.00 0.00 0.00 84 1018.6
20210304093330 46 260 4.0 8.0 0.00 0.00 0.00 84 1018.6
20210304093224 46 250 4.0 8.0 0.00 0.00 0.00 84 1018.6
20210304093208 46 246 4.0 8.0 0.00 0.00 0.00 84 1018.6
20210304093204 46 236 4.0 9.0 0.00 0.00 0.00 84 1018.6
20210304093124 46 199 4.0 9.0 0.00 0.00 0.00 85 1018.5
20210304093101 46 221 3.0 9.0 0.00 0.00 0.00 84 1018.5
20210304093049 46 201 3.0 9.0 0.00 0.00 0.00 84 1018.4
20210304093039 46 179 3.0 9.0 0.00 0.00 0.00 84 1018.4
20210304093019 46 149 3.0 9.0 0.00 0.00 0.00 84 1018.4
20210304092951 46 222 3.0 9.0 0.00 0.00 0.00 84 1018.4
20210304092927 46 218 3.0 9.0 0.00 0.00 0.00 84 1018.4
20210304092909 46 190 3.0 9.0 0.00 0.00 0.00 84 1018.4
20210304092900 46 214 4.0 9.0 0.00 0.00 0.00 85 1018.4
20210304092811 46 212 4.0 9.0 0.00 0.00 0.00 85 1018.4
20210304092720 46 222 4.0 9.0 0.00 0.00 0.00 84 1018.4
20210304092641 46 201 4.0 7.0 0.00 0.00 0.00 84 1018.3
20210304092405 46 233 4.0 8.0 0.00 0.00 0.00 85 1018.4
20210304092207 46 255 4.0 8.0 0.00 0.00 0.00 84 1018.3
20210304092004 46 214 4.0 8.0 0.00 0.00 0.00 85 1018.3
20210304091842 46 236 4.0 8.0 0.00 0.00 0.00 84 1018.3
20210304091703 46 179 4.0 8.0 0.00 0.00 0.00 84 1018.3
20210304091651 46 185 4.0 8.0 0.00 0.00 0.00 84 1018.2
20210304091551 46 193 4.0 8.0 0.00 0.00 0.00 84 1018.3
20210304091425 46 186 4.0 8.0 0.00 0.00 0.00 84 1018.3
20210304091307 46 184 4.0 8.0 0.00 0.00 0.00 84 1018.2
20210304091202 46 181 4.0 8.0 0.00 0.00 0.00 84 1018.2
20210304091142 46 191 4.0 8.0 0.00 0.00 0.00 84 1018.2
20210304091100 46 229 4.0 8.0 0.00 0.00 0.00 84 1018.1
20210304091011 46 165 3.0 8.0 0.00 0.00 0.00 84 1018.1
20210304090900 46 186 3.0 8.0 0.00 0.00 0.00 84 1018.1
20210304090800 46 225 3.0 8.0 0.00 0.00 0.00 84 1018.1
20210304090652 46 195 3.0 8.0 0.00 0.00 0.00 84 1018.1
20210304090558 46 165 3.0 8.0 0.00 0.00 0.00 84 1018.0
20210304090453 46 190 3.0 8.0 0.00 0.00 0.00 84 1018.1
20210304090353 46 177 3.0 8.0 0.00 0.00 0.00 84 1018.0
20210304090254 46 195 4.0 10.0 0.00 0.00 0.00 84 1018.0
20210304090150 46 218 4.0 10.0 0.00 0.00 0.00 84 1018.0
20210304090140 46 142 4.0 10.0 0.00 0.00 0.00 84 1018.0
20210304090101 46 225 4.0 10.0 0.00 0.00 0.00 84 1018.0
20210304085951 46 198 4.0 10.0 0.00 0.00 0.00 84 1018.0
20210304085857 46 173 4.0 10.0 0.00 0.00 0.00 84 1018.0
20210304085848 46 198 4.0 10.0 0.00 0.00 0.00 84 1017.9
20210304085832 46 210 4.0 10.0 0.00 0.00 0.00 84 1017.9
20210304085819 46 207 4.0 10.0 0.00 0.00 0.00 84 1018.0
20210304085756 46 194 4.0 10.0 0.00 0.00 0.00 84 1017.9
20210304085743 46 173 4.0 10.0 0.00 0.00 0.00 84 1017.9
20210304085706 46 198 4.0 9.0 0.00 0.00 0.00 84 1017.9
20210304085535 46 193 4.0 9.0 0.00 0.00 0.00 84 1018.0
20210304085337 46 198 4.0 10.0 0.00 0.00 0.00 84 1017.9
20210304085146 46 188 4.0 10.0 0.00 0.00 0.00 84 1017.9
20210304084954 46 176 4.0 10.0 0.00 0.00 0.00 84 1017.8
20210304084822 46 203 4.0 10.0 0.00 0.00 0.00 84 1017.8
20210304084641 46 145 4.0 10.0 0.00 0.00 0.00 84 1017.8
20210304084632 46 198 4.0 10.0 0.00 0.00 0.00 84 1017.8
20210304084537 46 201 4.0 10.0 0.00 0.00 0.00 84 1017.8
20210304084432 46 188 4.0 10.0 0.00 0.00 0.00 84 1017.7
20210304084332 46 193 4.0 10.0 0.00 0.00 0.00 84 1017.8
20210304084233 46 201 4.0 10.0 0.00 0.00 0.00 84 1017.7
20210304084139 46 179 3.0 10.0 0.00 0.00 0.00 83 1017.7
20210304084124 46 188 3.0 10.0 0.00 0.00 0.00 83 1017.7
20210304084032 46 221 3.0 9.0 0.00 0.00 0.00 83 1017.7
20210304083924 46 150 3.0 8.0 0.00 0.00 0.00 83 1017.7
20210304083824 46 193 3.0 8.0 0.00 0.00 0.00 83 1017.7
20210304083734 46 228 3.0 8.0 0.00 0.00 0.00 83 1017.6
20210304083637 46 134 4.0 8.0 0.00 0.00 0.00 83 1017.6
20210304083621 46 135 4.0 8.0 0.00 0.00 0.00 83 1017.6
20210304083531 46 169 4.0 11.0 0.00 0.00 0.00 83 1017.6
20210304083417 46 160 4.0 11.0 0.00 0.00 0.00 83 1017.6
20210304083319 46 173 4.0 11.0 0.00 0.00 0.00 83 1017.6
20210304083217 46 219 4.0 11.0 0.00 0.00 0.00 83 1017.6
20210304083134 46 165 4.0 11.0 0.00 0.00 0.00 83 1017.6
20210304083119 47 121 4.0 11.0 0.00 0.00 0.00 83 1017.6
20210304083033 47 139 4.0 11.0 0.00 0.00 0.00 83 1017.6
20210304082933 47 155 4.0 11.0 0.00 0.00 0.00 83 1017.6
20210304082857 47 174 4.0 11.0 0.00 0.00 0.00 83 1017.5
20210304082843 47 174 4.0 11.0 0.00 0.00 0.00 83 1017.6
20210304082838 47 190 4.0 11.0 0.00 0.00 0.00 83 1017.6
20210304082827 47 208 4.0 10.0 0.00 0.00 0.00 82 1017.6
20210304082808 47 92 4.0 10.0 0.00 0.00 0.00 82 1017.6
20210304082739 47 190 4.0 10.0 0.00 0.00 0.00 82 1017.5
20210304082615 47 205 4.0 10.0 0.00 0.00 0.00 82 1017.5
20210304082355 47 193 4.0 10.0 0.00 0.00 0.00 82 1017.5
20210304082338 47 208 4.0 10.0 0.00 0.00 0.00 82 1017.5
20210304082241 47 197 4.0 10.0 0.00 0.00 0.00 82 1017.5
20210304082055 47 145 4.0 10.0 0.00 0.00 0.00 82 1017.4
20210304081935 47 205 4.0 10.0 0.00 0.00 0.00 82 1017.5
20210304081831 47 200 4.0 9.0 0.00 0.00 0.00 82 1017.4
20210304081704 47 203 4.0 7.0 0.00 0.00 0.00 82 1017.4
20210304081638 47 146 4.0 7.0 0.00 0.00 0.00 82 1017.4
20210304081556 47 219 4.0 7.0 0.00 0.00 0.00 82 1017.4
20210304081456 47 205 3.0 7.0 0.00 0.00 0.00 81 1017.4
20210304081355 47 195 3.0 7.0 0.00 0.00 0.00 81 1017.4
20210304081255 47 212 3.0 7.0 0.00 0.00 0.00 81 1017.4
20210304081155 47 152 3.0 7.0 0.00 0.00 0.00 81 1017.4
20210304081131 47 168 3.0 7.0 0.00 0.00 0.00 81 1017.4
20210304081053 47 203 3.0 7.0 0.00 0.00 0.00 81 1017.4
20210304080957 47 198 3.0 7.0 0.00 0.00 0.00 81 1017.3
20210304080856 47 167 3.0 7.0 0.00 0.00 0.00 81 1017.3
20210304080755 47 165 3.0 7.0 0.00 0.00 0.00 81 1017.3
20210304080652 47 217 3.0 7.0 0.00 0.00 0.00 81 1017.3
20210304080634 47 228 3.0 8.0 0.00 0.00 0.00 81 1017.3
20210304080555 47 159 3.0 11.0 0.00 0.00 0.00 81 1017.3
20210304080452 47 156 3.0 11.0 0.00 0.00 0.00 81 1017.2
20210304080353 47 196 3.0 11.0 0.00 0.00 0.00 81 1017.3
20210304080251 47 205 3.0 11.0 0.00 0.00 0.00 81 1017.3
20210304080152 47 198 3.0 11.0 0.00 0.00 0.00 81 1017.2
20210304080131 47 175 3.0 11.0 0.00 0.00 0.00 81 1017.2
20210304080054 47 181 3.0 11.0 0.00 0.00 0.00 81 1017.2
20210304075952 47 152 3.0 11.0 0.00 0.00 0.00 81 1017.2
20210304075853 47 166 4.0 11.0 0.00 0.00 0.00 81 1017.2
20210304075753 47 187 4.0 11.0 0.00 0.00 0.00 81 1017.2
20210304075720 47 170 3.0 11.0 0.00 0.00 0.00 81 1017.1
20210304075717 47 181 3.0 11.0 0.00 0.00 0.00 81 1017.1
20210304075712 47 212 4.0 10.0 0.00 0.00 0.00 81 1017.1
20210304075632 47 242 4.0 10.0 0.00 0.00 0.00 81 1017.1
20210304075549 47 198 4.0 10.0 0.00 0.00 0.00 81 1017.1
20210304075421 47 194 4.0 10.0 0.00 0.00 0.00 81 1017.0
20210304075259 47 174 4.0 10.0 0.00 0.00 0.00 81 1017.0
20210304075235 47 264 4.0 10.0 0.00 0.00 0.00 81 1017.0
20210304075204 47 155 4.0 10.0 0.00 0.00 0.00 81 1017.0
20210304074956 47 138 3.0 7.0 0.00 0.00 0.00 81 1017.0
20210304074858 47 143 3.0 7.0 0.00 0.00 0.00 81 1016.9
20210304074804 47 198 3.0 6.0 0.00 0.00 0.00 81 1017.0
20210304074640 47 186 2.0 6.0 0.00 0.00 0.00 81 1016.9
20210304074619 47 139 2.0 6.0 0.00 0.00 0.00 81 1016.9
20210304074539 47 222 2.0 6.0 0.00 0.00 0.00 81 1016.9
20210304074440 47 180 2.0 7.0 0.00 0.00 0.00 81 1016.9
20210304074338 47 184 2.0 7.0 0.00 0.00 0.00 81 1016.9
20210304074239 47 207 1.0 7.0 0.00 0.00 0.00 81 1016.9
20210304074139 47 188 2.0 7.0 0.00 0.00 0.00 81 1016.9
20210304074115 47 174 2.0 7.0 0.00 0.00 0.00 81 1016.9
20210304074039 47 186 2.0 7.0 0.00 0.00 0.00 80 1016.9
20210304073933 47 113 2.0 7.0 0.00 0.00 0.00 80 1016.8
20210304073828 47 127 2.0 7.0 0.00 0.00 0.00 80 1016.8
20210304073728 47 154 3.0 7.0 0.00 0.00 0.00 80 1016.8
20210304073631 47 131 3.0 7.0 0.00 0.00 0.00 80 1016.8
20210304073607 47 139 3.0 7.0 0.00 0.00 0.00 80 1016.7
20210304073530 47 177 3.0 7.0 0.00 0.00 0.00 80 1016.7
20210304073428 47 150 3.0 7.0 0.00 0.00 0.00 81 1016.7
20210304073324 47 200 3.0 7.0 0.00 0.00 0.00 81 1016.7
20210304073230 47 174 3.0 7.0 0.00 0.00 0.00 81 1016.7
20210304073125 47 217 4.0 7.0 0.00 0.00 0.00 81 1016.7
20210304073102 47 199 4.0 7.0 0.00 0.00 0.00 81 1016.7
20210304073027 47 201 4.0 7.0 0.00 0.00 0.00 81 1016.7
20210304072923 47 143 3.0 7.0 0.00 0.00 0.00 81 1016.6
20210304072817 47 171 3.0 7.0 0.00 0.00 0.00 80 1016.6
20210304072716 47 210 3.0 7.0 0.00 0.00 0.00 81 1016.6
20210304072650 47 162 3.0 8.0 0.00 0.00 0.00 81 1016.6
20210304072644 47 148 3.0 8.0 0.00 0.00 0.00 81 1016.6
20210304072555 47 186 3.0 8.0 0.00 0.00 0.00 80 1016.5
20210304072440 47 238 3.0 8.0 0.00 0.00 0.00 80 1016.5
20210304072351 47 210 3.0 8.0 0.00 0.00 0.00 81 1016.5
20210304072312 47 169 3.0 8.0 0.00 0.00 0.00 81 1016.5
20210304072207 47 205 3.0 8.0 0.00 0.00 0.00 80 1016.5
20210304072136 47 205 3.0 8.0 0.00 0.00 0.00 80 1016.5
20210304072047 47 205 3.0 8.0 0.00 0.00 0.00 80 1016.5
20210304071915 47 141 3.0 8.0 0.00 0.00 0.00 80 1016.5
20210304071821 47 155 3.0 8.0 0.00 0.00 0.00 80 1016.5
20210304071707 47 193 3.0 8.0 0.00 0.00 0.00 81 1016.5
20210304071606 47 179 3.0 8.0 0.00 0.00 0.00 80 1016.5
20210304071559 47 174 3.0 6.0 0.00 0.00 0.00 80 1016.5
20210304071525 47 139 3.0 6.0 0.00 0.00 0.00 81 1016.4
20210304071404 47 190 3.0 6.0 0.00 0.00 0.00 81 1016.4
20210304071258 47 181 3.0 7.0 0.00 0.00 0.00 81 1016.4
20210304071204 47 198 3.0 7.0 0.00 0.00 0.00 81 1016.4
20210304071100 47 193 3.0 7.0 0.00 0.00 0.00 81 1016.4
20210304070958 47 177 3.0 8.0 0.00 0.00 0.00 81 1016.3
20210304070859 47 245 3.0 8.0 0.00 0.00 0.00 81 1016.4
20210304070753 47 193 3.0 8.0 0.00 0.00 0.00 81 1016.4
20210304070657 47 167 3.0 8.0 0.00 0.00 0.00 81 1016.4
20210304070605 47 193 3.0 8.0 0.00 0.00 0.00 82 1016.4
20210304070454 47 225 3.0 8.0 0.00 0.00 0.00 82 1016.4
20210304070359 47 229 3.0 8.0 0.00 0.00 0.00 82 1016.3
20210304070250 47 219 3.0 8.0 0.00 0.00 0.00 82 1016.3
20210304070149 47 215 3.0 8.0 0.00 0.00 0.00 82 1016.3
20210304070101 47 229 3.0 7.0 0.00 0.00 0.00 82 1016.3
20210304070047 47 225 3.0 6.0 0.00 0.00 0.00 82 1016.3
20210304065947 47 240 2.0 6.0 0.00 0.00 0.00 82 1016.3
20210304065846 47 184 2.0 6.0 0.00 0.00 0.00 83 1016.3
20210304065824 47 198 2.0 6.0 0.00 0.00 0.00 83 1016.3
20210304065815 47 245 2.0 5.0 0.00 0.00 0.00 83 1016.2
20210304065800 46 215 1.0 5.0 0.00 0.00 0.00 83 1016.2
20210304065753 46 229 1.0 5.0 0.00 0.00 0.00 83 1016.2
20210304065739 46 195 1.0 5.0 0.00 0.00 0.00 83 1016.2
20210304065723 46 190 1.0 5.0 0.00 0.00 0.00 83 1016.2
20210304065544 46 198 1.0 3.0 0.00 0.00 0.00 83 1016.2
20210304065422 46 153 1.0 3.0 0.00 0.00 0.00 82 1016.2
20210304065237 46 153 1.0 3.0 0.00 0.00 0.00 82 1016.1
20210304065212 46 198 1.0 3.0 0.00 0.00 0.00 82 1016.1
20210304065059 47 203 1.0 3.0 0.00 0.00 0.00 82 1016.1
20210304064931 47 153 1.0 3.0 0.00 0.00 0.00 82 1016.1
20210304064802 47 153 1.0 3.0 0.00 0.00 0.00 82 1016.0
20210304064639 47 152 1.0 3.0 0.00 0.00 0.00 82 1016.1
20210304064545 47 152 1.0 3.0 0.00 0.00 0.00 82 1016.0
20210304064430 47 127 1.0 3.0 0.00 0.00 0.00 81 1016.0
20210304064329 47 127 1.0 3.0 0.00 0.00 0.00 81 1015.9
20210304064224 47 136 1.0 4.0 0.00 0.00 0.00 81 1015.9
20210304064124 47 136 2.0 5.0 0.00 0.00 0.00 81 1015.9
20210304064053 47 137 2.0 5.0 0.00 0.00 0.00 81 1015.9
20210304064026 47 153 2.0 5.0 0.00 0.00 0.00 81 1015.9
20210304063925 47 152 2.0 5.0 0.00 0.00 0.00 81 1015.9
20210304063824 47 138 2.0 6.0 0.00 0.00 0.00 81 1015.8
20210304063720 47 129 2.0 6.0 0.00 0.00 0.00 81 1015.8
20210304063616 47 134 2.0 6.0 0.00 0.00 0.00 81 1015.8
20210304063552 47 138 2.0 6.0 0.00 0.00 0.00 81 1015.8
20210304063524 47 144 2.0 6.0 0.00 0.00 0.00 81 1015.8
20210304063416 47 117 2.0 6.0 0.00 0.00 0.00 81 1015.7
20210304063319 47 146 2.0 6.0 0.00 0.00 0.00 81 1015.7
20210304063215 47 124 2.0 6.0 0.00 0.00 0.00 81 1015.7
20210304063204 47 141 2.0 6.0 0.00 0.00 0.00 81 1015.7
20210304063157 47 139 2.0 6.0 0.00 0.00 0.00 81 1015.7
20210304063144 47 191 2.0 6.0 0.00 0.00 0.00 81 1015.7
20210304063130 47 176 2.0 6.0 0.00 0.00 0.00 81 1015.7
20210304063117 47 118 2.0 6.0 0.00 0.00 0.00 81 1015.7
20210304063107 47 141 2.0 6.0 0.00 0.00 0.00 81 1015.6
20210304063056 48 105 1.0 6.0 0.00 0.00 0.00 81 1015.6
20210304063051 48 123 1.0 6.0 0.00 0.00 0.00 81 1015.6
20210304063036 48 221 2.0 6.0 0.00 0.00 0.00 81 1015.6
20210304062959 48 228 2.0 6.0 0.00 0.00 0.00 81 1015.6
20210304062931 48 141 2.0 6.0 0.00 0.00 0.00 81 1015.5
20210304062904 48 141 2.0 6.0 0.00 0.00 0.00 81 1015.6
20210304062850 48 139 2.0 6.0 0.00 0.00 0.00 81 1015.6
20210304062815 48 146 2.0 6.0 0.00 0.00 0.00 81 1015.6
20210304062522 48 177 2.0 7.0 0.00 0.00 0.00 80 1015.6
20210304062245 48 134 3.0 8.0 0.00 0.00 0.00 80 1015.5
20210304062139 48 148 3.0 8.0 0.00 0.00 0.00 80 1015.6
20210304061853 48 198 3.0 9.0 0.00 0.00 0.00 80 1015.5
20210304061655 48 114 3.0 9.0 0.00 0.00 0.00 80 1015.5
20210304061545 48 141 3.0 9.0 0.00 0.00 0.00 80 1015.5
20210304061402 48 137 3.0 9.0 0.00 0.00 0.00 80 1015.5
20210304061252 48 93 4.0 9.0 0.00 0.00 0.00 80 1015.5
20210304061155 48 169 4.0 9.0 0.00 0.00 0.00 80 1015.5
20210304061114 48 138 4.0 9.0 0.00 0.00 0.00 80 1015.5
20210304061106 48 143 4.0 9.0 0.00 0.00 0.00 80 1015.5
20210304060952 48 222 3.0 11.0 0.00 0.00 0.00 80 1015.4
20210304060852 48 190 4.0 11.0 0.00 0.00 0.00 80 1015.4
20210304060750 48 230 4.0 11.0 0.00 0.00 0.00 80 1015.4
20210304060650 48 152 4.0 11.0 0.00 0.00 0.00 80 1015.3
20210304060552 48 218 4.0 11.0 0.00 0.00 0.00 80 1015.3
20210304060457 48 202 4.0 11.0 0.00 0.00 0.00 80 1015.4
20210304060352 48 203 4.0 11.0 0.00 0.00 0.00 81 1015.3
20210304060250 48 167 4.0 11.0 0.00 0.00 0.00 80 1015.2
20210304060202 48 190 4.0 11.0 0.00 0.00 0.00 80 1015.2
20210304060104 48 188 4.0 11.0 0.00 0.00 0.00 81 1015.2
20210304055950 48 174 4.0 11.0 0.00 0.00 0.00 81 1015.2
20210304055855 48 161 4.0 11.0 0.00 0.00 0.00 81 1015.2
20210304055821 48 188 4.0 11.0 0.00 0.00 0.00 81 1015.1
20210304055811 48 130 4.0 11.0 0.00 0.00 0.00 81 1015.1
20210304055744 48 179 4.0 11.0 0.00 0.00 0.00 81 1015.1
20210304055728 48 113 4.0 11.0 0.00 0.00 0.00 81 1015.1
20210304055657 48 186 4.0 11.0 0.00 0.00 0.00 81 1015.0
20210304055556 48 170 4.0 11.0 0.00 0.00 0.00 81 1015.0
20210304055412 48 205 4.0 11.0 0.00 0.00 0.00 81 1015.0
20210304055255 48 187 4.0 10.0 0.00 0.00 0.00 81 1014.9
20210304055047 48 184 4.0 8.0 0.00 0.00 0.00 81 1014.9
20210304054908 48 123 4.0 8.0 0.00 0.00 0.00 81 1014.9
20210304054748 48 170 4.0 8.0 0.00 0.00 0.00 81 1014.9
20210304054638 48 190 4.0 8.0 0.00 0.00 0.00 81 1014.9
20210304054550 48 170 4.0 8.0 0.00 0.00 0.00 80 1014.8
20210304054441 48 198 3.0 8.0 0.00 0.00 0.00 80 1014.8
20210304054332 48 193 3.0 11.0 0.00 0.00 0.00 80 1014.7
20210304054233 48 190 3.0 11.0 0.00 0.00 0.00 80 1014.7
20210304054135 48 181 3.0 11.0 0.00 0.00 0.00 80 1014.7
20210304054034 48 143 3.0 11.0 0.00 0.00 0.00 80 1014.6
20210304053926 48 203 3.0 11.0 0.00 0.00 0.00 80 1014.6
20210304053828 48 152 3.0 11.0 0.00 0.00 0.00 80 1014.6
20210304053726 48 159 3.0 11.0 0.00 0.00 0.00 80 1014.6
20210304053627 48 180 3.0 11.0 0.00 0.00 0.00 80 1014.5
20210304053527 48 208 3.0 11.0 0.00 0.00 0.00 80 1014.5
20210304053420 48 218 4.0 11.0 0.00 0.00 0.00 80 1014.5
20210304053322 48 143 4.0 11.0 0.00 0.00 0.00 80 1014.5
20210304053221 48 193 4.0 11.0 0.00 0.00 0.00 80 1014.5
20210304053120 48 193 4.0 11.0 0.00 0.00 0.00 80 1014.5
20210304053027 48 207 4.0 11.0 0.00 0.00 0.00 80 1014.4
20210304052914 48 183 4.0 11.0 0.00 0.00 0.00 80 1014.4
20210304052830 48 197 4.0 11.0 0.00 0.00 0.00 81 1014.4
20210304052812 48 229 4.0 11.0 0.00 0.00 0.00 81 1014.4
20210304052803 48 172 4.0 11.0 0.00 0.00 0.00 81 1014.4
20210304052747 48 214 4.0 11.0 0.00 0.00 0.00 81 1014.3
20210304052707 48 212 3.0 11.0 0.00 0.00 0.00 81 1014.3
20210304052542 48 201 3.0 10.0 0.00 0.00 0.00 81 1014.3
20210304052414 48 165 4.0 10.0 0.00 0.00 0.00 81 1014.3
20210304052309 48 239 4.0 10.0 0.00 0.00 0.00 81 1014.3
20210304052138 48 231 4.0 10.0 0.00 0.00 0.00 81 1014.2
20210304051920 48 152 4.0 10.0 0.00 0.00 0.00 81 1014.2
20210304051811 48 195 4.0 10.0 0.00 0.00 0.00 81 1014.2
20210304051704 48 203 4.0 10.0 0.00 0.00 0.00 81 1014.1
20210304051603 48 182 5.0 10.0 0.00 0.00 0.00 81 1014.1
20210304051518 48 163 5.0 10.0 0.00 0.00 0.00 80 1014.1
20210304051356 48 158 5.0 9.0 0.00 0.00 0.00 80 1014.0
20210304051256 48 205 5.0 9.0 0.00 0.00 0.00 80 1014.0
20210304051158 49 193 5.0 9.0 0.00 0.00 0.00 80 1014.0
20210304051056 49 143 5.0 9.0 0.00 0.00 0.00 80 1013.9
20210304051000 49 162 5.0 9.0 0.00 0.00 0.00 80 1013.9
20210304050850 49 193 5.0 9.0 0.00 0.00 0.00 80 1013.9
20210304050750 49 198 5.0 9.0 0.00 0.00 0.00 80 1013.9
20210304050650 49 219 5.0 12.0 0.00 0.00 0.00 80 1013.9
20210304050550 49 232 5.0 12.0 0.00 0.00 0.00 80 1013.9
20210304050452 49 186 5.0 12.0 0.00 0.00 0.00 80 1013.9
20210304050346 49 205 5.0 12.0 0.00 0.00 0.00 80 1013.9
20210304050249 49 187 5.0 12.0 0.00 0.00 0.00 80 1013.9
20210304050144 49 205 5.0 12.0 0.00 0.00 0.00 80 1013.8
20210304050045 49 219 5.0 12.0 0.00 0.00 0.00 80 1013.9
20210304045949 49 212 5.0 12.0 0.00 0.00 0.00 80 1013.8
20210304045841 49 215 5.0 13.0 0.00 0.00 0.00 80 1013.8
20210304045738 49 172 5.0 13.0 0.00 0.00 0.00 79 1013.8
20210304045732 49 176 5.0 13.0 0.00 0.00 0.00 79 1013.8
20210304045723 49 188 5.0 13.0 0.00 0.00 0.00 79 1013.7
20210304045633 49 194 5.0 13.0 0.00 0.00 0.00 79 1013.7
20210304045530 49 201 5.0 13.0 0.00 0.00 0.00 79 1013.7
20210304045404 49 183 5.0 13.0 0.00 0.00 0.00 79 1013.7
20210304045305 49 121 5.0 13.0 0.00 0.00 0.00 79 1013.7
20210304045203 49 224 5.0 13.0 0.00 0.00 0.00 79 1013.7
20210304044945 49 212 5.0 13.0 0.00 0.00 0.00 79 1013.6
20210304044833 49 197 5.0 11.0 0.00 0.00 0.00 78 1013.6
20210304044729 49 195 5.0 11.0 0.00 0.00 0.00 78 1013.6
20210304044627 49 212 4.0 11.0 0.00 0.00 0.00 78 1013.5
20210304044527 49 193 4.0 11.0 0.00 0.00 0.00 78 1013.5
20210304044431 49 173 4.0 10.0 0.00 0.00 0.00 78 1013.4
20210304044327 49 216 5.0 12.0 0.00 0.00 0.00 77 1013.4
20210304044220 49 200 4.0 12.0 0.00 0.00 0.00 77 1013.4
20210304044120 50 250 5.0 17.0 0.00 0.00 0.00 77 1013.4
20210304044033 50 232 5.0 17.0 0.00 0.00 0.00 77 1013.3
20210304043921 50 233 5.0 17.0 0.00 0.00 0.00 77 1013.3
20210304043815 50 260 6.0 17.0 0.00 0.00 0.00 77 1013.2
20210304043720 50 250 6.0 17.0 0.00 0.00 0.00 77 1013.2
20210304043621 50 188 6.0 17.0 0.00 0.00 0.00 77 1013.2
20210304043525 50 205 6.0 17.0 0.00 0.00 0.00 77 1013.2
20210304043430 50 218 6.0 17.0 0.00 0.00 0.00 76 1013.2
20210304043313 50 256 7.0 17.0 0.00 0.00 0.00 76 1013.1
20210304043212 50 225 6.0 16.0 0.00 0.00 0.00 76 1013.1
20210304043112 50 214 6.0 14.0 0.00 0.00 0.00 76 1013.0
20210304043042 50 239 6.0 14.0 0.00 0.00 0.00 76 1013.0